AAL72 YSSY-KLAX

Flight info

Callsign AAL72
Flight time 13h 34m
Altitude 31000
Route NOBAR B450 ABARB DCT 3135S15749E 2845S16300E 2823S16338E 2448S16852E/N0499F330 2116S17314E 1800S17645E 1608S17854E 1237S17650W 1009S17405W 0849S17239W 0653S17037W 0500S16841W 0244S16623W/N0494F350 0044S16422W 0225N16113W 0607N15739W 0717N15631W 1036N15318W 1444N14851W 1728N14508W/N0487F370 1813N14358W 2102N13915W 2212N13720W 2511N13245W 2700N13001W 3021N12442W DCT FOOTS DCT ELKEY RYDRR2
Aircraft B77W/H-SDE1E2E3FGHIJ2J3J4J5M1RWXY/LB1D1

Departure

Time 2026-05-05 02:24
Airport Sydney Kingsford Smith International Airport (YSSY)

Arrival

Time 2026-05-05 15:58
Airport Los Angeles International Airport (KLAX)
Time Latitude Longitude Altitude Speed Heading
2026-05-05 01:26 -33.93459 151.17679 41 ft 0 kts 100°
2026-05-05 02:01 -33.93459 151.17676 41 ft 2 kts 100°
2026-05-05 02:02 -33.93456 151.17658 41 ft 2 kts 100°
2026-05-05 02:02 -33.93453 151.17641 41 ft 2 kts 100°
2026-05-05 02:02 -33.93451 151.17622 41 ft 2 kts 100°
2026-05-05 02:02 -33.93448 151.17604 41 ft 2 kts 109°
2026-05-05 02:03 -33.93440 151.17590 41 ft 2 kts 155°
2026-05-05 02:03 -33.93426 151.17589 41 ft 2 kts 189°
2026-05-05 02:03 -33.93411 151.17590 41 ft 2 kts 186°
2026-05-05 02:03 -33.93397 151.17592 41 ft 2 kts 182°
2026-05-05 02:04 -33.93388 151.17593 41 ft 1 kts 181°
2026-05-05 02:04 -33.93383 151.17592 41 ft 0 kts 176°
2026-05-05 02:07 -33.93423 151.17593 41 ft 13 kts 185°
2026-05-05 02:07 -33.93462 151.17541 41 ft 9 kts 251°
2026-05-05 02:08 -33.93528 151.17511 41 ft 14 kts 166°
2026-05-05 02:08 -33.93650 151.17546 41 ft 21 kts 166°
2026-05-05 02:08 -33.93803 151.17590 41 ft 20 kts 169°
2026-05-05 02:08 -33.93888 151.17569 41 ft 6 kts 238°
2026-05-05 02:09 -33.93889 151.17566 41 ft 0 kts 241°
2026-05-05 02:11 -33.93895 151.17546 40 ft 7 kts 252°
2026-05-05 02:11 -33.93910 151.17487 41 ft 8 kts 254°
2026-05-05 02:11 -33.93931 151.17398 41 ft 11 kts 254°
2026-05-05 02:11 -33.93956 151.17294 41 ft 12 kts 250°
2026-05-05 02:12 -33.94013 151.17233 41 ft 11 kts 176°
2026-05-05 02:12 -33.94232 151.17293 41 ft 20 kts 166°
2026-05-05 02:12 -33.94323 151.17317 41 ft 10 kts 167°
2026-05-05 02:13 -33.94394 151.17333 40 ft 10 kts 169°
2026-05-05 02:13 -33.94475 151.17352 40 ft 13 kts 167°
2026-05-05 02:13 -33.94578 151.17383 41 ft 17 kts 166°
2026-05-05 02:13 -33.94706 151.17418 41 ft 20 kts 167°
2026-05-05 02:14 -33.94837 151.17448 40 ft 17 kts 167°
2026-05-05 02:14 -33.94945 151.17477 41 ft 14 kts 167°
2026-05-05 02:14 -33.95038 151.17502 41 ft 13 kts 168°
2026-05-05 02:14 -33.95123 151.17523 40 ft 12 kts 168°
2026-05-05 02:15 -33.95203 151.17543 40 ft 11 kts 168°
2026-05-05 02:15 -33.95298 151.17569 40 ft 20 kts 168°
2026-05-05 02:15 -33.95433 151.17604 40 ft 18 kts 168°
2026-05-05 02:15 -33.95502 151.17622 40 ft 0 kts 166°
2026-05-05 02:16 -33.95502 151.17624 40 ft 0 kts 167°
2026-05-05 02:16 -33.95510 151.17625 40 ft 3 kts 171°
2026-05-05 02:16 -33.95552 151.17635 40 ft 9 kts 168°
2026-05-05 02:17 -33.95632 151.17654 40 ft 13 kts 168°
2026-05-05 02:17 -33.95739 151.17683 40 ft 17 kts 168°
2026-05-05 02:17 -33.95871 151.17719 41 ft 21 kts 167°
2026-05-05 02:17 -33.96026 151.17755 40 ft 22 kts 168°
2026-05-05 02:18 -33.96166 151.17792 40 ft 19 kts 166°
2026-05-05 02:18 -33.96285 151.17824 40 ft 15 kts 168°
2026-05-05 02:18 -33.96384 151.17851 40 ft 10 kts 163°
2026-05-05 02:18 -33.96431 151.17892 41 ft 2 kts 115°
2026-05-05 02:21 -33.96433 151.17899 40 ft 4 kts 109°
2026-05-05 02:22 -33.96431 151.17981 40 ft 11 kts 81°
2026-05-05 02:22 -33.96421 151.18039 40 ft 1 kts 59°
2026-05-05 02:22 -33.96396 151.18056 40 ft 4 kts 357°
2026-05-05 02:22 -33.96384 151.18053 40 ft 0 kts 346°
2026-05-05 02:23 -33.96370 151.18048 40 ft 7 kts 345°
2026-05-05 02:23 -33.96158 151.17990 41 ft 62 kts 349°
2026-05-05 02:23 -33.95503 151.17818 41 ft 129 kts 347°
2026-05-05 02:24 -33.94424 151.17541 46 ft 185 kts 347°
2026-05-05 02:24 -33.93064 151.17204 430 ft 207 kts 341°
2026-05-05 02:24 -33.91668 151.16786 1255 ft 214 kts 342°
2026-05-05 02:24 -33.90154 151.16371 1988 ft 230 kts 337°
2026-05-05 02:25 -33.88776 151.15396 2739 ft 240 kts 312°
2026-05-05 02:25 -33.87589 151.13901 3589 ft 253 kts 309°
2026-05-05 02:25 -33.86395 151.12331 4586 ft 260 kts 310°
2026-05-05 02:25 -33.85191 151.10756 5656 ft 264 kts 310°
2026-05-05 02:26 -33.83927 151.09106 6691 ft 270 kts 310°
2026-05-05 02:26 -33.82676 151.07475 7760 ft 272 kts 310°
2026-05-05 02:26 -33.81406 151.05820 8861 ft 273 kts 310°
2026-05-05 02:26 -33.80121 151.04144 9856 ft 276 kts 310°
2026-05-05 02:27 -33.78819 151.02449 10707 ft 284 kts 310°
2026-05-05 02:27 -33.77457 151.00671 11352 ft 299 kts 310°
2026-05-05 02:27 -33.76012 150.98790 12034 ft 314 kts 310°
2026-05-05 02:27 -33.74508 150.96832 12764 ft 327 kts 310°
2026-05-05 02:28 -33.72936 150.94788 13524 ft 340 kts 310°
2026-05-05 02:28 -33.71297 150.92656 14228 ft 354 kts 310°
2026-05-05 02:28 -33.69610 150.90466 14913 ft 368 kts 310°
2026-05-05 02:28 -33.67780 150.88261 15654 ft 381 kts 317°
2026-05-05 02:29 -33.65585 150.86421 16527 ft 391 kts 328°
2026-05-05 02:29 -33.63081 150.85092 17455 ft 399 kts 339°
2026-05-05 02:29 -33.60353 150.84335 18390 ft 407 kts 349°
2026-05-05 02:29 -33.57534 150.84192 19297 ft 415 kts 359°
2026-05-05 02:30 -33.54633 150.84683 20179 ft 424 kts
2026-05-05 02:30 -33.51824 150.85822 20995 ft 434 kts 20°
2026-05-05 02:30 -33.49189 150.87617 21804 ft 444 kts 31°
2026-05-05 02:30 -33.46840 150.90041 22550 ft 455 kts 42°
2026-05-05 02:31 -33.44870 150.93069 23225 ft 468 kts 53°
2026-05-05 02:31 -33.43399 150.96642 23833 ft 482 kts 66°
2026-05-05 02:31 -33.42579 151.00526 24395 ft 495 kts 79°
2026-05-05 02:31 -33.42476 151.04684 24972 ft 506 kts 93°
2026-05-05 02:32 -33.43152 151.08784 25552 ft 514 kts 107°
2026-05-05 02:32 -33.44614 151.12698 26063 ft 520 kts 121°
2026-05-05 02:32 -33.46816 151.16148 26536 ft 523 kts 136°
2026-05-05 02:32 -33.49603 151.18901 26970 ft 524 kts 148°
2026-05-05 02:33 -33.52717 151.21300 27459 ft 527 kts 151°
2026-05-05 02:33 -33.55835 151.23613 27997 ft 530 kts 151°
2026-05-05 02:33 -33.58930 151.25926 28452 ft 534 kts 149°
2026-05-05 02:33 -33.61927 151.28661 28855 ft 542 kts 140°
2026-05-05 02:34 -33.64583 151.31885 29265 ft 547 kts 131°
2026-05-05 02:34 -33.67016 151.35355 29799 ft 547 kts 133°
2026-05-05 02:34 -33.69401 151.38919 30398 ft 546 kts 124°
2026-05-05 02:34 -33.71291 151.42816 30853 ft 546 kts 115°
2026-05-05 02:35 -33.72730 151.47049 31058 ft 551 kts 107°
2026-05-05 02:35 -33.74822 151.56059 31076 ft 570 kts 103°
2026-05-05 02:36 -33.76733 151.65373 31067 ft 583 kts 98°
2026-05-05 02:36 -33.77248 151.75072 31057 ft 580 kts 82°
2026-05-05 02:37 -33.75692 151.84447 31067 ft 570 kts 67°
2026-05-05 02:37 -33.73221 151.93460 31066 ft 571 kts 66°
2026-05-05 02:38 -33.70697 152.02525 31070 ft 565 kts 66°
2026-05-05 02:38 -33.69483 152.06886 31070 ft 549 kts 66°
2026-05-05 02:38 -33.68291 152.11159 31069 ft 534 kts 66°
2026-05-05 02:39 -33.65941 152.19528 31077 ft 531 kts 65°
2026-05-05 02:39 -33.63591 152.27866 31076 ft 529 kts 65°
2026-05-05 02:40 -33.61234 152.36208 31075 ft 531 kts 65°
2026-05-05 02:40 -33.58864 152.44571 31076 ft 531 kts 65°
2026-05-05 02:41 -33.56478 152.52969 31077 ft 532 kts 65°
2026-05-05 02:41 -33.54107 152.61290 31080 ft 532 kts 65°
2026-05-05 02:42 -33.51713 152.69672 31066 ft 530 kts 65°
2026-05-05 02:42 -33.49343 152.77940 31067 ft 530 kts 64°
2026-05-05 02:43 -33.46950 152.86269 31066 ft 532 kts 65°
2026-05-05 02:43 -33.44540 152.94630 31067 ft 531 kts 65°
2026-05-05 02:44 -33.42133 153.02959 31068 ft 532 kts 64°
2026-05-05 02:44 -33.39706 153.11333 31070 ft 531 kts 64°
2026-05-05 02:45 -33.37295 153.19624 31071 ft 533 kts 64°
2026-05-05 02:45 -33.34863 153.27968 31070 ft 532 kts 64°
2026-05-05 02:46 -33.32424 153.36313 31072 ft 532 kts 65°
2026-05-05 02:46 -33.29972 153.44673 31072 ft 534 kts 64°
2026-05-05 02:47 -33.27527 153.52991 31072 ft 532 kts 65°
2026-05-05 02:47 -33.25087 153.61269 31073 ft 532 kts 65°
2026-05-05 02:48 -33.22619 153.69612 31060 ft 533 kts 64°
2026-05-05 02:48 -33.20166 153.77889 31062 ft 532 kts 64°
2026-05-05 02:49 -33.17694 153.86203 31056 ft 532 kts 64°
2026-05-05 02:49 -33.15221 153.94496 31048 ft 531 kts 64°
2026-05-05 02:50 -33.12733 154.02817 31045 ft 533 kts 64°
2026-05-05 02:50 -33.10244 154.11118 31047 ft 533 kts 64°
2026-05-05 02:51 -33.07741 154.19441 31046 ft 535 kts 64°
2026-05-05 02:51 -33.05237 154.27743 31049 ft 536 kts 64°
2026-05-05 02:52 -33.02716 154.36084 31049 ft 537 kts 64°
2026-05-05 02:52 -33.00182 154.44441 31046 ft 538 kts 64°
2026-05-05 02:53 -32.97654 154.52760 31050 ft 538 kts 64°
2026-05-05 02:53 -32.95106 154.61118 31041 ft 538 kts 64°
2026-05-05 02:54 -32.92546 154.69496 31040 ft 540 kts 64°
2026-05-05 02:54 -32.89981 154.77864 31042 ft 541 kts 64°
2026-05-05 02:55 -32.87391 154.86285 31040 ft 541 kts 64°
2026-05-05 02:55 -32.84682 154.94518 31050 ft 534 kts 57°
2026-05-05 02:56 -32.81366 155.02446 31044 ft 537 kts 56°
2026-05-05 02:56 -32.78035 155.10312 31043 ft 535 kts 56°
2026-05-05 02:57 -32.74665 155.18243 31042 ft 536 kts 56°
2026-05-05 02:57 -32.71329 155.26073 31056 ft 538 kts 56°
2026-05-05 02:58 -32.67943 155.34004 31049 ft 537 kts 56°
2026-05-05 02:58 -32.64573 155.41879 31051 ft 537 kts 56°
2026-05-05 02:59 -32.61176 155.49794 31051 ft 540 kts 56°
2026-05-05 02:59 -32.57774 155.57710 31059 ft 538 kts 56°
2026-05-05 03:00 -32.54391 155.65562 31049 ft 539 kts 55°
2026-05-05 03:00 -32.50980 155.73459 31034 ft 540 kts 55°
2026-05-05 03:01 -32.47561 155.81360 31022 ft 539 kts 55°
2026-05-05 03:01 -32.44148 155.89226 31022 ft 540 kts 55°
2026-05-05 03:02 -32.40710 155.97133 31025 ft 543 kts 55°
2026-05-05 03:02 -32.37275 156.05020 31024 ft 540 kts 56°
2026-05-05 03:03 -32.33807 156.12959 31037 ft 545 kts 56°
2026-05-05 03:03 -32.30359 156.20844 31038 ft 542 kts 56°
2026-05-05 03:04 -32.26895 156.28738 31053 ft 545 kts 56°
2026-05-05 03:04 -32.23399 156.36696 31058 ft 544 kts 56°
2026-05-05 03:05 -32.19917 156.44612 31048 ft 544 kts 56°
2026-05-05 03:05 -32.16436 156.52493 31056 ft 545 kts 56°
2026-05-05 03:06 -32.12921 156.60435 31048 ft 546 kts 56°
2026-05-05 03:06 -32.09428 156.68314 31022 ft 544 kts 55°
2026-05-05 03:07 -32.05903 156.76247 31020 ft 545 kts 55°
2026-05-05 03:07 -32.02415 156.84080 31019 ft 544 kts 55°
2026-05-05 03:08 -31.98871 156.92020 31014 ft 545 kts 55°
2026-05-05 03:08 -31.95344 156.99905 31025 ft 546 kts 55°
2026-05-05 03:09 -31.91826 157.07756 31027 ft 547 kts 55°
2026-05-05 03:09 -31.88265 157.15683 31034 ft 548 kts 55°
2026-05-05 03:10 -31.84700 157.23607 31038 ft 547 kts 55°
2026-05-05 03:10 -31.81144 157.31490 31038 ft 548 kts 55°
2026-05-05 03:11 -31.77578 157.39380 31036 ft 549 kts 56°
2026-05-05 03:11 -31.73987 157.47305 31039 ft 548 kts 55°
2026-05-05 03:12 -31.70410 157.55185 31038 ft 551 kts 56°
2026-05-05 03:12 -31.66804 157.63112 31037 ft 550 kts 56°
2026-05-05 03:13 -31.63217 157.70981 31025 ft 549 kts 55°
2026-05-05 03:13 -31.59630 157.78833 31028 ft 548 kts 55°
2026-05-05 03:14 -31.55903 157.86614 31035 ft 548 kts 52°
2026-05-05 03:14 -31.51949 157.94251 31044 ft 546 kts 52°
2026-05-05 03:15 -31.48012 158.01862 31050 ft 549 kts 52°
2026-05-05 03:15 -31.44091 158.09453 31043 ft 548 kts 52°
2026-05-05 03:16 -31.40150 158.17079 31049 ft 546 kts 52°
2026-05-05 03:16 -31.36200 158.24712 31052 ft 549 kts 52°
2026-05-05 03:17 -31.32266 158.32306 31053 ft 547 kts 52°
2026-05-05 03:17 -31.28313 158.39920 31058 ft 548 kts 52°
2026-05-05 03:18 -31.24386 158.47475 31059 ft 548 kts 52°
2026-05-05 03:18 -31.20430 158.55070 31058 ft 549 kts 52°
2026-05-05 03:19 -31.14488 158.66449 31044 ft 549 kts 52°
2026-05-05 03:19 -31.10529 158.74017 31042 ft 549 kts 52°
2026-05-05 03:20 -31.06536 158.81630 31040 ft 547 kts 52°
2026-05-05 03:20 -31.02556 158.89206 31045 ft 549 kts 52°
2026-05-05 03:21 -30.98606 158.96707 31044 ft 548 kts 52°
2026-05-05 03:21 -30.94599 159.04301 31046 ft 552 kts 53°
2026-05-05 03:22 -30.90599 159.11873 31045 ft 548 kts 53°
2026-05-05 03:22 -30.86582 159.19458 31057 ft 553 kts 53°
2026-05-05 03:23 -30.82586 159.26994 31060 ft 547 kts 53°
2026-05-05 03:23 -30.78587 159.34517 31056 ft 548 kts 53°
2026-05-05 03:24 -30.74566 159.42065 31064 ft 549 kts 52°
2026-05-05 03:24 -30.70565 159.49565 31068 ft 548 kts 52°
2026-05-05 03:25 -30.66544 159.57086 31068 ft 549 kts 53°
2026-05-05 03:25 -30.62536 159.64569 31073 ft 550 kts 53°
2026-05-05 03:26 -30.58499 159.72092 31053 ft 548 kts 52°
2026-05-05 03:26 -30.54476 159.79573 31056 ft 549 kts 52°
2026-05-05 03:27 -30.50443 159.87061 31051 ft 547 kts 53°
2026-05-05 03:27 -30.46404 159.94544 31057 ft 549 kts 52°
2026-05-05 03:28 -30.42378 160.01991 31055 ft 547 kts 53°
2026-05-05 03:28 -30.38337 160.09450 31054 ft 548 kts 52°
2026-05-05 03:29 -30.34287 160.16911 31061 ft 548 kts 53°
2026-05-05 03:29 -30.30249 160.24338 31058 ft 550 kts 53°
2026-05-05 03:30 -30.26191 160.31787 31059 ft 549 kts 53°
2026-05-05 03:30 -30.22099 160.39282 31063 ft 550 kts 53°
2026-05-05 03:31 -30.18042 160.46706 31068 ft 547 kts 53°
2026-05-05 03:31 -30.13969 160.54137 31068 ft 548 kts 53°
2026-05-05 03:32 -30.09892 160.61566 31069 ft 550 kts 53°
2026-05-05 03:32 -30.05829 160.68955 31059 ft 548 kts 53°
2026-05-05 03:33 -30.01743 160.76373 31056 ft 548 kts 53°
2026-05-05 03:33 -29.97648 160.83792 31055 ft 548 kts 53°
2026-05-05 03:34 -29.93567 160.91173 31060 ft 549 kts 53°
2026-05-05 03:34 -29.89484 160.98544 31063 ft 547 kts 53°
2026-05-05 03:35 -29.85384 161.05931 31070 ft 551 kts 53°
2026-05-05 03:35 -29.81254 161.13362 31070 ft 548 kts 53°
2026-05-05 03:36 -29.77134 161.20758 31072 ft 551 kts 53°
2026-05-05 03:36 -29.73004 161.28159 31066 ft 551 kts 53°
2026-05-05 03:37 -29.68895 161.35512 31070 ft 549 kts 53°
2026-05-05 03:37 -29.64741 161.42928 31071 ft 554 kts 53°
2026-05-05 03:38 -29.60583 161.50340 31071 ft 551 kts 53°
2026-05-05 03:38 -29.56449 161.57697 31070 ft 550 kts 53°
2026-05-05 03:39 -29.52295 161.65073 31070 ft 553 kts 53°
2026-05-05 03:39 -29.48120 161.72475 31054 ft 551 kts 53°
2026-05-05 03:40 -29.43968 161.79822 31052 ft 553 kts 53°
2026-05-05 03:40 -29.39785 161.87212 31051 ft 551 kts 53°
2026-05-05 03:41 -29.35609 161.94574 31052 ft 552 kts 53°
2026-05-05 03:41 -29.31429 162.01933 31058 ft 552 kts 53°
2026-05-05 03:42 -29.27219 162.09329 31058 ft 554 kts 53°
2026-05-05 03:42 -29.23043 162.16655 31058 ft 551 kts 53°
2026-05-05 03:43 -29.18838 162.24014 31063 ft 555 kts 54°
2026-05-05 03:43 -29.14621 162.31387 31066 ft 551 kts 53°
2026-05-05 03:44 -29.10423 162.38710 31064 ft 553 kts 54°
2026-05-05 03:44 -29.06220 162.46028 31064 ft 549 kts 53°
2026-05-05 03:45 -29.02044 162.53287 31071 ft 553 kts 54°
2026-05-05 03:45 -28.97818 162.60623 31072 ft 551 kts 54°
2026-05-05 03:46 -28.93624 162.67888 31055 ft 551 kts 53°
2026-05-05 03:46 -28.89414 162.75169 31057 ft 549 kts 53°
2026-05-05 03:47 -28.85195 162.82451 31054 ft 551 kts 53°
2026-05-05 03:47 -28.80995 162.89690 31057 ft 548 kts 53°
2026-05-05 03:48 -28.76766 162.96965 31058 ft 550 kts 54°
2026-05-05 03:48 -28.72596 163.04161 31053 ft 549 kts 54°
2026-05-05 03:49 -28.68410 163.11440 31057 ft 550 kts 54°
2026-05-05 03:49 -28.64213 163.18724 31055 ft 549 kts 54°
2026-05-05 03:50 -28.60023 163.25980 31058 ft 551 kts 54°
2026-05-05 03:50 -28.55818 163.33247 31057 ft 551 kts 54°
2026-05-05 03:51 -28.51620 163.40492 31056 ft 552 kts 54°
2026-05-05 03:51 -28.47396 163.47766 31060 ft 550 kts 54°
2026-05-05 03:52 -28.43198 163.54984 31064 ft 552 kts 54°
2026-05-05 03:52 -28.38947 163.62280 31059 ft 551 kts 55°
2026-05-05 03:53 -28.34555 163.69342 31048 ft 552 kts 51°
2026-05-05 03:53 -28.29988 163.76343 31046 ft 549 kts 51°
2026-05-05 03:54 -28.25459 163.83298 31049 ft 553 kts 51°
2026-05-05 03:54 -28.20894 163.90315 31050 ft 551 kts 51°
2026-05-05 03:55 -28.16366 163.97273 31050 ft 551 kts 51°
2026-05-05 03:55 -28.11846 164.04215 31054 ft 550 kts 51°
2026-05-05 03:56 -28.07291 164.11197 31058 ft 551 kts 51°
2026-05-05 03:56 -28.02761 164.18137 31061 ft 550 kts 51°
2026-05-05 03:57 -27.98224 164.25073 31065 ft 552 kts 52°
2026-05-05 03:57 -27.93638 164.32075 31061 ft 551 kts 52°
2026-05-05 03:58 -27.89076 164.39031 31062 ft 552 kts 52°
2026-05-05 03:58 -27.84526 164.45956 31059 ft 551 kts 52°
2026-05-05 03:59 -27.79939 164.52927 31053 ft 552 kts 52°
2026-05-05 03:59 -27.75394 164.59824 31051 ft 551 kts 52°
2026-05-05 04:00 -27.70809 164.66768 31043 ft 552 kts 51°
2026-05-05 04:00 -27.66229 164.73695 31044 ft 552 kts 51°
2026-05-05 04:01 -27.61650 164.80609 31043 ft 552 kts 52°
2026-05-05 04:01 -27.57044 164.87553 31045 ft 551 kts 52°
2026-05-05 04:02 -27.52453 164.94464 31046 ft 553 kts 51°
2026-05-05 04:02 -27.47857 165.01372 31050 ft 551 kts 51°
2026-05-05 04:03 -27.43267 165.08258 31053 ft 554 kts 52°
2026-05-05 04:03 -27.38639 165.15192 31054 ft 552 kts 52°
2026-05-05 04:04 -27.34033 165.22081 31054 ft 553 kts 52°
2026-05-05 04:04 -27.29426 165.28961 31059 ft 552 kts 52°
2026-05-05 04:05 -27.24789 165.35875 31055 ft 553 kts 52°
2026-05-05 04:05 -27.20193 165.42719 31063 ft 551 kts 52°
2026-05-05 04:06 -27.15580 165.49576 31065 ft 552 kts 52°
2026-05-05 04:06 -27.10947 165.56451 31068 ft 552 kts 52°
2026-05-05 04:07 -27.06322 165.63304 31067 ft 553 kts 52°
2026-05-05 04:07 -27.01687 165.70163 31056 ft 553 kts 51°
2026-05-05 04:08 -26.97026 165.77049 31059 ft 553 kts 52°
2026-05-05 04:08 -26.92386 165.83893 31062 ft 555 kts 51°
2026-05-05 04:09 -26.87724 165.90759 31051 ft 553 kts 51°
2026-05-05 04:09 -26.83061 165.97617 31057 ft 556 kts 52°
2026-05-05 04:10 -26.78386 166.04481 31059 ft 554 kts 51°
2026-05-05 04:10 -26.73718 166.11324 31060 ft 555 kts 52°
2026-05-05 04:11 -26.69041 166.18170 31056 ft 553 kts 52°
2026-05-05 04:11 -26.64403 166.24950 31059 ft 553 kts 52°
2026-05-05 04:12 -26.59723 166.31779 31054 ft 554 kts 52°
2026-05-05 04:12 -26.55042 166.38600 31055 ft 551 kts 52°
2026-05-05 04:13 -26.50377 166.45387 31058 ft 554 kts 52°
2026-05-05 04:13 -26.45711 166.52165 31053 ft 553 kts 52°
2026-05-05 04:14 -26.41025 166.58963 31054 ft 554 kts 52°
2026-05-05 04:14 -26.36318 166.65781 31053 ft 554 kts 52°
2026-05-05 04:15 -26.31618 166.72577 31042 ft 554 kts 51°
2026-05-05 04:15 -26.26929 166.79350 31053 ft 554 kts 52°
2026-05-05 04:16 -26.22202 166.86165 31053 ft 554 kts 52°
2026-05-05 04:16 -26.17516 166.92914 31052 ft 555 kts 52°
2026-05-05 04:17 -26.12819 166.99666 31053 ft 554 kts 52°
2026-05-05 04:17 -26.08094 167.06450 31052 ft 557 kts 52°
2026-05-05 04:18 -26.03364 167.13228 31055 ft 554 kts 52°
2026-05-05 04:18 -25.98616 167.20024 31059 ft 557 kts 52°
2026-05-05 04:19 -25.93888 167.26782 31061 ft 554 kts 52°
2026-05-05 04:19 -25.89153 167.33540 31058 ft 556 kts 52°
2026-05-05 04:20 -25.84409 167.40302 31053 ft 554 kts 52°
2026-05-05 04:20 -25.79660 167.47058 31055 ft 555 kts 52°
2026-05-05 04:21 -25.74916 167.53799 31055 ft 555 kts 52°
2026-05-05 04:21 -25.70190 167.60504 31062 ft 555 kts 52°
2026-05-05 04:22 -25.65437 167.67238 31040 ft 553 kts 51°
2026-05-05 04:22 -25.60706 167.73930 31036 ft 554 kts 52°
2026-05-05 04:23 -25.55969 167.80624 31035 ft 553 kts 51°
2026-05-05 04:23 -25.51217 167.87328 31033 ft 554 kts 51°
2026-05-05 04:24 -25.46489 167.93986 31040 ft 553 kts 52°
2026-05-05 04:25 -25.39368 168.04001 31036 ft 553 kts 52°
2026-05-05 04:25 -25.34596 168.10698 31036 ft 554 kts 52°
2026-05-05 04:26 -25.29843 168.17362 31038 ft 554 kts 52°
2026-05-05 04:26 -25.25078 168.24031 31039 ft 553 kts 52°
2026-05-05 04:27 -25.20309 168.30696 31035 ft 553 kts 52°
2026-05-05 04:27 -25.15544 168.37347 31040 ft 554 kts 52°
2026-05-05 04:28 -25.10758 168.44017 31041 ft 556 kts 52°
2026-05-05 04:28 -25.05969 168.50684 31043 ft 554 kts 52°
2026-05-05 04:29 -25.01175 168.57347 31044 ft 554 kts 52°
2026-05-05 04:29 -24.96403 168.63969 31040 ft 555 kts 52°
2026-05-05 04:30 -24.91619 168.70601 31030 ft 555 kts 51°
2026-05-05 04:30 -24.86825 168.77235 31015 ft 553 kts 51°
2026-05-05 04:31 -24.82041 168.83849 31018 ft 553 kts 51°
2026-05-05 04:31 -24.77142 168.90456 31016 ft 554 kts 49°
2026-05-05 04:32 -24.72154 168.96855 31019 ft 554 kts 49°
2026-05-05 04:32 -24.67155 169.03270 31019 ft 555 kts 49°
2026-05-05 04:33 -24.62123 169.09729 31019 ft 556 kts 49°
2026-05-05 04:33 -24.57092 169.16185 31021 ft 555 kts 49°
2026-05-05 04:34 -24.52070 169.22624 31024 ft 557 kts 50°
2026-05-05 04:34 -24.47061 169.29040 31024 ft 556 kts 49°
2026-05-05 04:35 -24.42022 169.35487 31024 ft 557 kts 49°
2026-05-05 04:35 -24.36975 169.41937 31031 ft 557 kts 49°
2026-05-05 04:36 -24.31925 169.48383 31030 ft 557 kts 49°
2026-05-05 04:36 -24.26880 169.54813 31025 ft 558 kts 50°
2026-05-05 04:37 -24.21824 169.61247 31026 ft 556 kts 50°
2026-05-05 04:37 -24.16790 169.67648 31013 ft 558 kts 49°
2026-05-05 04:38 -24.11711 169.74097 31015 ft 557 kts 49°
2026-05-05 04:38 -24.06678 169.80478 31010 ft 556 kts 49°
2026-05-05 04:39 -24.01644 169.86852 31011 ft 557 kts 49°
2026-05-05 04:39 -23.96571 169.93266 31014 ft 558 kts 49°
2026-05-05 04:40 -23.91501 169.99670 31013 ft 557 kts 49°
2026-05-05 04:40 -23.86434 170.06061 31004 ft 559 kts 50°
2026-05-05 04:41 -23.81325 170.12497 31005 ft 559 kts 50°
2026-05-05 04:41 -23.76251 170.18880 31006 ft 559 kts 50°
2026-05-05 04:42 -23.71169 170.25264 31008 ft 558 kts 50°
2026-05-05 04:42 -23.66077 170.31653 31006 ft 558 kts 50°
2026-05-05 04:43 -23.61001 170.38014 31011 ft 557 kts 49°
2026-05-05 04:43 -23.55904 170.44392 31013 ft 559 kts 50°
2026-05-05 04:44 -23.50813 170.50757 31013 ft 559 kts 50°
2026-05-05 04:44 -23.45694 170.57147 31015 ft 557 kts 50°
2026-05-05 04:45 -23.40625 170.63466 31016 ft 559 kts 50°
2026-05-05 04:45 -23.35496 170.69853 31006 ft 557 kts 49°
2026-05-05 04:46 -23.30411 170.76175 31006 ft 559 kts 49°
2026-05-05 04:46 -23.25304 170.82518 31011 ft 559 kts 50°
2026-05-05 04:47 -23.20171 170.88886 31008 ft 558 kts 49°
2026-05-05 04:47 -23.15064 170.95213 31010 ft 560 kts 49°
2026-05-05 04:48 -23.09941 171.01550 31011 ft 559 kts 49°
2026-05-05 04:48 -23.04785 171.07922 31016 ft 560 kts 49°
2026-05-05 04:49 -22.99679 171.14223 31015 ft 560 kts 50°
2026-05-05 04:49 -22.94510 171.20595 31014 ft 559 kts 49°
2026-05-05 04:50 -22.89397 171.26889 31012 ft 558 kts 49°
2026-05-05 04:50 -22.84273 171.33191 30999 ft 559 kts 50°
2026-05-05 04:51 -22.79093 171.39551 30997 ft 560 kts 49°
2026-05-05 04:51 -22.73975 171.45828 30999 ft 559 kts 49°
2026-05-05 04:52 -22.68815 171.52150 30996 ft 558 kts 50°
2026-05-05 04:52 -22.63677 171.58437 30995 ft 559 kts 50°
2026-05-05 04:53 -22.58535 171.64720 30998 ft 559 kts 49°
2026-05-05 04:53 -22.53390 171.70998 30990 ft 558 kts 49°
2026-05-05 04:54 -22.48216 171.77306 30996 ft 560 kts 49°
2026-05-05 04:54 -22.43057 171.83588 30995 ft 558 kts 49°
2026-05-05 04:55 -22.37895 171.89864 30991 ft 558 kts 49°
2026-05-05 04:55 -22.32745 171.96118 30995 ft 560 kts 49°
2026-05-05 04:56 -22.27595 172.02367 30994 ft 559 kts 49°
2026-05-05 04:56 -22.22427 172.08629 30992 ft 559 kts 49°
2026-05-05 04:57 -22.17249 172.14896 30993 ft 559 kts 49°
2026-05-05 04:57 -22.12096 172.21124 30995 ft 559 kts 49°
2026-05-05 04:58 -22.06935 172.27354 30992 ft 557 kts 49°
2026-05-05 04:58 -22.01762 172.33592 30999 ft 558 kts 49°
2026-05-05 04:59 -21.96589 172.39822 30996 ft 557 kts 49°
2026-05-05 04:59 -21.91404 172.46062 30994 ft 559 kts 49°
2026-05-05 05:00 -21.86228 172.52281 30982 ft 558 kts 49°
2026-05-05 05:00 -21.81053 172.58491 30980 ft 558 kts 50°
2026-05-05 05:01 -21.75856 172.64722 30984 ft 559 kts 49°
2026-05-05 05:01 -21.70685 172.70914 30966 ft 560 kts 49°
2026-05-05 05:02 -21.65481 172.77138 30965 ft 559 kts 49°
2026-05-05 05:02 -21.60272 172.83360 30966 ft 559 kts 49°
2026-05-05 05:03 -21.55087 172.89548 30968 ft 559 kts 49°
2026-05-05 05:03 -21.49904 172.95725 30974 ft 558 kts 49°
2026-05-05 05:04 -21.44714 173.01903 30973 ft 558 kts 49°
2026-05-05 05:04 -21.39490 173.08115 30970 ft 557 kts 49°
2026-05-05 05:05 -21.34313 173.14264 30970 ft 558 kts 49°
2026-05-05 05:05 -21.29107 173.20439 30972 ft 557 kts 49°
2026-05-05 05:06 -21.23876 173.26521 30972 ft 558 kts 47°
2026-05-05 05:06 -21.18472 173.32489 30975 ft 557 kts 47°
2026-05-05 05:07 -21.13094 173.38426 30974 ft 559 kts 47°
2026-05-05 05:07 -21.07678 173.44411 30977 ft 557 kts 47°
2026-05-05 05:08 -21.02277 173.50378 30976 ft 559 kts 47°
2026-05-05 05:08 -20.96902 173.56313 30978 ft 558 kts 47°
2026-05-05 05:09 -20.91515 173.62256 30972 ft 558 kts 47°
2026-05-05 05:09 -20.86096 173.68230 30951 ft 558 kts 47°
2026-05-05 05:10 -20.80690 173.74184 30941 ft 558 kts 47°
2026-05-05 05:10 -20.75309 173.80103 30935 ft 559 kts 46°
2026-05-05 05:11 -20.69886 173.86061 30931 ft 559 kts 46°
2026-05-05 05:11 -20.64447 173.92032 30932 ft 559 kts 47°
2026-05-05 05:12 -20.59049 173.97952 30938 ft 559 kts 47°
2026-05-05 05:12 -20.53635 174.03882 30944 ft 558 kts 46°
2026-05-05 05:13 -20.48217 174.09810 30944 ft 558 kts 47°
2026-05-05 05:13 -20.42781 174.15752 30938 ft 558 kts 47°
2026-05-05 05:14 -20.37386 174.21642 30937 ft 558 kts 47°
2026-05-05 05:14 -20.31947 174.27574 30935 ft 557 kts 47°
2026-05-05 05:15 -20.26538 174.33467 30938 ft 557 kts 47°
2026-05-05 05:15 -20.21134 174.39349 30939 ft 556 kts 47°
2026-05-05 05:16 -20.15702 174.45254 30939 ft 555 kts 46°
2026-05-05 05:16 -20.10289 174.51134 30938 ft 556 kts 47°
2026-05-05 05:17 -20.04886 174.56995 30939 ft 555 kts 47°
2026-05-05 05:17 -19.99513 174.62819 30940 ft 555 kts 46°
2026-05-05 05:18 -19.94098 174.68681 30927 ft 555 kts 46°
2026-05-05 05:18 -19.88693 174.74527 30914 ft 554 kts 46°
2026-05-05 05:19 -19.83258 174.80400 30913 ft 555 kts 46°
2026-05-05 05:19 -19.77868 174.86217 30915 ft 555 kts 46°
2026-05-05 05:20 -19.72440 174.92070 30913 ft 554 kts 46°
2026-05-05 05:20 -19.67061 174.97864 30916 ft 554 kts 46°
2026-05-05 05:21 -19.61651 175.03683 30911 ft 554 kts 46°
2026-05-05 05:21 -19.56230 175.09511 30917 ft 554 kts 46°
2026-05-05 05:22 -19.50826 175.15314 30914 ft 555 kts 46°
2026-05-05 05:22 -19.45389 175.21146 30917 ft 555 kts 46°
2026-05-05 05:23 -19.39976 175.26947 30914 ft 553 kts 46°
2026-05-05 05:23 -19.34573 175.32732 30918 ft 554 kts 46°
2026-05-05 05:24 -19.29146 175.38536 30916 ft 555 kts 46°
2026-05-05 05:24 -19.23727 175.44325 30917 ft 554 kts 46°
2026-05-05 05:25 -19.18334 175.50081 30917 ft 554 kts 46°
2026-05-05 05:25 -19.12894 175.55882 30918 ft 552 kts 46°
2026-05-05 05:26 -19.07504 175.61624 30919 ft 553 kts 46°
2026-05-05 05:26 -19.02090 175.67386 30909 ft 551 kts 46°
2026-05-05 05:27 -18.96686 175.73131 30908 ft 550 kts 46°
2026-05-05 05:27 -18.88621 175.81694 30898 ft 549 kts 46°
2026-05-05 05:28 -18.83202 175.87442 30895 ft 551 kts 46°
2026-05-05 05:28 -18.77833 175.93131 30894 ft 549 kts 46°
2026-05-05 05:29 -18.72436 175.98843 30895 ft 549 kts 46°
2026-05-05 05:29 -18.67045 176.04544 30895 ft 549 kts 46°
2026-05-05 05:30 -18.61655 176.10239 30896 ft 548 kts 46°
2026-05-05 05:30 -18.56274 176.15920 30891 ft 549 kts 46°
2026-05-05 05:31 -18.50871 176.21616 30888 ft 549 kts 46°
2026-05-05 05:31 -18.45502 176.27274 30883 ft 548 kts 46°
2026-05-05 05:32 -18.40091 176.32968 30882 ft 548 kts 46°
2026-05-05 05:32 -18.34719 176.38617 30885 ft 549 kts 46°
2026-05-05 05:33 -18.29292 176.44318 30888 ft 549 kts 46°
2026-05-05 05:33 -18.23925 176.49951 30883 ft 547 kts 46°
2026-05-05 05:34 -18.18524 176.55615 30883 ft 548 kts 46°
2026-05-05 05:34 -18.13145 176.61250 30885 ft 546 kts 46°
2026-05-05 05:35 -18.07744 176.66904 30872 ft 547 kts 45°
2026-05-05 05:35 -18.02349 176.72545 30873 ft 546 kts 45°
2026-05-05 05:36 -17.97074 176.78255 30873 ft 545 kts 49°
2026-05-05 05:36 -17.92051 176.84192 30875 ft 546 kts 49°
2026-05-05 05:37 -17.87018 176.90118 30855 ft 545 kts 49°
2026-05-05 05:37 -17.81954 176.96059 30859 ft 545 kts 49°
2026-05-05 05:38 -17.76909 177.01958 30862 ft 543 kts 49°
2026-05-05 05:38 -17.71852 177.07860 30860 ft 544 kts 49°
2026-05-05 05:39 -17.66792 177.13757 30863 ft 544 kts 49°
2026-05-05 05:39 -17.61720 177.19659 30867 ft 543 kts 49°
2026-05-05 05:40 -17.56683 177.25514 30873 ft 544 kts 49°
2026-05-05 05:40 -17.51616 177.31400 30880 ft 543 kts 49°
2026-05-05 05:41 -17.46542 177.37285 30883 ft 544 kts 49°
2026-05-05 05:41 -17.41507 177.43121 30884 ft 542 kts 49°
2026-05-05 05:42 -17.36417 177.49016 30887 ft 543 kts 49°
2026-05-05 05:42 -17.31367 177.54858 30880 ft 542 kts 49°
2026-05-05 05:43 -17.26324 177.60689 30879 ft 542 kts 49°
2026-05-05 05:43 -17.21277 177.66518 30873 ft 541 kts 48°
2026-05-05 05:44 -17.16215 177.72359 30870 ft 541 kts 48°
2026-05-05 05:44 -17.11159 177.78188 30873 ft 543 kts 48°
2026-05-05 05:45 -17.06111 177.84003 30866 ft 541 kts 48°
2026-05-05 05:45 -17.01069 177.89807 30868 ft 541 kts 48°
2026-05-05 05:46 -16.95975 177.95664 30863 ft 540 kts 48°
2026-05-05 05:46 -16.90938 178.01451 30865 ft 541 kts 48°
2026-05-05 05:47 -16.85908 178.07225 30857 ft 539 kts 48°
2026-05-05 05:47 -16.80846 178.13031 30858 ft 539 kts 48°
2026-05-05 05:48 -16.75828 178.18782 30856 ft 539 kts 48°
2026-05-05 05:48 -16.70771 178.24573 30856 ft 536 kts 47°
2026-05-05 05:49 -16.65743 178.30324 30856 ft 537 kts 47°
2026-05-05 05:49 -16.60726 178.36060 30859 ft 538 kts 47°
2026-05-05 05:50 -16.55698 178.41801 30859 ft 537 kts 47°
2026-05-05 05:50 -16.50654 178.47559 30856 ft 536 kts 47°
2026-05-05 05:51 -16.45637 178.53279 30859 ft 536 kts 47°
2026-05-05 05:51 -16.40596 178.59021 30857 ft 533 kts 47°
2026-05-05 05:52 -16.35585 178.64726 30855 ft 535 kts 47°
2026-05-05 05:52 -16.30585 178.70413 30846 ft 532 kts 46°
2026-05-05 05:53 -16.25602 178.76077 30845 ft 532 kts 46°
2026-05-05 05:53 -16.20616 178.81738 30844 ft 531 kts 46°
2026-05-05 05:54 -16.15598 178.87431 30845 ft 531 kts 46°
2026-05-05 05:54 -16.10680 178.93175 30845 ft 532 kts 49°
2026-05-05 05:55 -16.05992 178.99068 30845 ft 533 kts 49°
2026-05-05 05:55 -16.01261 179.04997 30846 ft 533 kts 49°
2026-05-05 05:56 -15.96531 179.10902 30845 ft 531 kts 49°
2026-05-05 05:56 -15.91810 179.16785 30846 ft 530 kts 49°
2026-05-05 05:57 -15.87100 179.22643 30855 ft 530 kts 49°
2026-05-05 05:57 -15.82373 179.28514 30857 ft 528 kts 49°
2026-05-05 05:58 -15.77657 179.34364 30851 ft 530 kts 48°
2026-05-05 05:58 -15.72945 179.40207 30846 ft 528 kts 48°
2026-05-05 05:59 -15.68236 179.46037 30846 ft 528 kts 48°
2026-05-05 05:59 -15.63524 179.51869 30847 ft 525 kts 48°
2026-05-05 06:00 -15.58836 179.57665 30848 ft 526 kts 48°
2026-05-05 06:00 -15.54107 179.63509 30850 ft 526 kts 48°
2026-05-05 06:01 -15.49419 179.69296 30841 ft 525 kts 47°
2026-05-05 06:01 -15.44695 179.75122 30840 ft 527 kts 47°
2026-05-05 06:02 -15.39996 179.80914 30841 ft 525 kts 47°
2026-05-05 06:02 -15.35323 179.86670 30844 ft 526 kts 47°
2026-05-05 06:03 -15.30604 179.92477 30845 ft 524 kts 47°
2026-05-05 06:03 -15.25932 179.98221 30847 ft 523 kts 46°
2026-05-05 06:04 -15.21218 -179.96002 30845 ft 523 kts 47°
2026-05-05 06:04 -15.16521 -179.90234 30845 ft 523 kts 47°
2026-05-05 06:05 -15.11832 -179.84474 30847 ft 523 kts 47°
2026-05-05 06:05 -15.07173 -179.78758 30848 ft 522 kts 47°
2026-05-05 06:06 -15.02498 -179.73029 30845 ft 522 kts 47°
2026-05-05 06:06 -14.97822 -179.67302 30845 ft 521 kts 47°
2026-05-05 06:07 -14.93133 -179.61565 30847 ft 521 kts 47°
2026-05-05 06:07 -14.88467 -179.55861 30845 ft 519 kts 47°
2026-05-05 06:08 -14.83796 -179.50156 30847 ft 521 kts 47°
2026-05-05 06:08 -14.79103 -179.44428 30837 ft 518 kts 46°
2026-05-05 06:09 -14.74437 -179.38736 30838 ft 520 kts 46°
2026-05-05 06:09 -14.69774 -179.33054 30839 ft 520 kts 46°
2026-05-05 06:10 -14.65111 -179.27379 30839 ft 520 kts 46°
2026-05-05 06:10 -14.60405 -179.21657 30840 ft 520 kts 46°
2026-05-05 06:11 -14.55723 -179.15964 30841 ft 519 kts 46°
2026-05-05 06:11 -14.51086 -179.10330 30840 ft 518 kts 46°
2026-05-05 06:12 -14.46411 -179.04654 30830 ft 519 kts 46°
2026-05-05 06:12 -14.41757 -178.99005 30822 ft 517 kts 46°
2026-05-05 06:13 -14.37077 -178.93332 30822 ft 518 kts 46°
2026-05-05 06:13 -14.32394 -178.87656 30823 ft 519 kts 46°
2026-05-05 06:14 -14.27734 -178.82013 30823 ft 519 kts 46°
2026-05-05 06:14 -14.23051 -178.76347 30910 ft 526 kts 46°
2026-05-05 06:15 -14.20670 -178.73468 31405 ft 525 kts 46°
2026-05-05 06:15 -14.18328 -178.70634 32104 ft 520 kts 46°
2026-05-05 06:15 -14.15996 -178.67813 32689 ft 518 kts 46°
2026-05-05 06:15 -14.13636 -178.64961 32820 ft 522 kts 46°
2026-05-05 06:16 -14.08962 -178.59312 32820 ft 515 kts 46°
2026-05-05 06:16 -14.06650 -178.56517 32823 ft 502 kts 45°
2026-05-05 06:16 -14.04439 -178.53847 32822 ft 488 kts 45°
2026-05-05 06:17 -14.00036 -178.48540 32816 ft 487 kts 45°
2026-05-05 06:17 -13.97868 -178.45926 32811 ft 474 kts 45°
2026-05-05 06:17 -13.95773 -178.43398 32808 ft 460 kts 45°
2026-05-05 06:18 -13.91587 -178.38362 32822 ft 469 kts 45°
2026-05-05 06:18 -13.87309 -178.33215 32818 ft 473 kts 45°
2026-05-05 06:19 -13.83007 -178.28043 32820 ft 484 kts 45°
2026-05-05 06:19 -13.78633 -178.22780 32822 ft 482 kts 45°
2026-05-05 06:20 -13.74284 -178.17552 32822 ft 482 kts 45°
2026-05-05 06:20 -13.69919 -178.12311 32826 ft 482 kts 45°
2026-05-05 06:21 -13.65561 -178.07080 32835 ft 481 kts 45°
2026-05-05 06:21 -13.61192 -178.01840 32842 ft 480 kts 45°
2026-05-05 06:22 -13.56866 -177.96655 32842 ft 481 kts 45°
2026-05-05 06:22 -13.52493 -177.91419 32844 ft 481 kts 45°
2026-05-05 06:23 -13.48144 -177.86212 32846 ft 481 kts 45°
2026-05-05 06:23 -13.43801 -177.81017 32841 ft 480 kts 45°
2026-05-05 06:24 -13.39445 -177.75809 32847 ft 480 kts 45°
2026-05-05 06:24 -13.35096 -177.70613 32844 ft 480 kts 45°
2026-05-05 06:25 -13.30753 -177.65427 32844 ft 480 kts 45°
2026-05-05 06:25 -13.26389 -177.60217 32846 ft 479 kts 45°
2026-05-05 06:26 -13.22052 -177.55045 32847 ft 479 kts 45°
2026-05-05 06:26 -13.17691 -177.49847 32849 ft 480 kts 45°
2026-05-05 06:27 -13.11186 -177.42099 32847 ft 478 kts 45°
2026-05-05 06:28 -13.06849 -177.36937 32842 ft 479 kts 45°
2026-05-05 06:28 -13.02519 -177.31786 32824 ft 476 kts 45°
2026-05-05 06:29 -12.98164 -177.26608 32821 ft 477 kts 45°
2026-05-05 06:29 -12.93830 -177.21458 32815 ft 477 kts 45°
2026-05-05 06:30 -12.89518 -177.16339 32818 ft 478 kts 45°
2026-05-05 06:30 -12.85172 -177.11182 32818 ft 479 kts 45°
2026-05-05 06:31 -12.80813 -177.06010 32823 ft 479 kts 45°
2026-05-05 06:31 -12.76465 -177.00856 32819 ft 477 kts 45°
2026-05-05 06:32 -12.72121 -176.95711 32825 ft 478 kts 45°
2026-05-05 06:32 -12.67765 -176.90552 32825 ft 478 kts 45°
2026-05-05 06:33 -12.63420 -176.85411 32824 ft 478 kts 45°
2026-05-05 06:33 -12.59044 -176.80327 32825 ft 478 kts 44°
2026-05-05 06:34 -12.54558 -176.75275 32829 ft 477 kts 44°
2026-05-05 06:34 -12.50098 -176.70248 32838 ft 477 kts 44°
2026-05-05 06:35 -12.45650 -176.65233 32839 ft 477 kts 44°
2026-05-05 06:35 -12.41196 -176.60211 32842 ft 477 kts 44°
2026-05-05 06:36 -12.36728 -176.55174 32843 ft 479 kts 44°
2026-05-05 06:36 -12.32265 -176.50143 32846 ft 477 kts 44°
2026-05-05 06:37 -12.27783 -176.45096 32846 ft 478 kts 44°
2026-05-05 06:37 -12.23325 -176.40076 32848 ft 478 kts 44°
2026-05-05 06:38 -12.18857 -176.35048 32848 ft 477 kts 44°
2026-05-05 06:38 -12.14399 -176.30032 32837 ft 477 kts 44°
2026-05-05 06:39 -12.09938 -176.25020 32835 ft 477 kts 44°
2026-05-05 06:39 -12.05454 -176.19981 32840 ft 479 kts 44°
2026-05-05 06:40 -12.00978 -176.14955 32839 ft 477 kts 44°
2026-05-05 06:40 -11.96522 -176.09955 32840 ft 479 kts 44°
2026-05-05 06:41 -11.92047 -176.04933 32841 ft 477 kts 44°
2026-05-05 06:41 -11.87581 -175.99927 32844 ft 477 kts 44°
2026-05-05 06:42 -11.83134 -175.94943 32844 ft 476 kts 44°
2026-05-05 06:42 -11.78662 -175.89935 32844 ft 476 kts 44°
2026-05-05 06:43 -11.74198 -175.84938 32846 ft 476 kts 44°
2026-05-05 06:43 -11.69754 -175.79967 32847 ft 475 kts 44°
2026-05-05 06:44 -11.65276 -175.74959 32849 ft 475 kts 44°
2026-05-05 06:44 -11.60832 -175.69992 32850 ft 475 kts 44°
2026-05-05 06:45 -11.56393 -175.65033 32856 ft 474 kts 44°
2026-05-05 06:45 -11.51943 -175.60065 32859 ft 474 kts 44°
2026-05-05 06:46 -11.47485 -175.55090 32863 ft 475 kts 44°
2026-05-05 06:46 -11.43048 -175.50142 32863 ft 474 kts 44°
2026-05-05 06:47 -11.38585 -175.45166 32859 ft 474 kts 44°
2026-05-05 06:47 -11.34144 -175.40218 32854 ft 474 kts 44°
2026-05-05 06:48 -11.29699 -175.35266 32853 ft 474 kts 44°
2026-05-05 06:48 -11.25250 -175.30313 32840 ft 473 kts 44°
2026-05-05 06:49 -11.20796 -175.25359 32840 ft 474 kts 44°
2026-05-05 06:49 -11.16358 -175.20422 32840 ft 473 kts 44°
2026-05-05 06:50 -11.11922 -175.15492 32840 ft 473 kts 44°
2026-05-05 06:50 -11.07485 -175.10562 32840 ft 473 kts 44°
2026-05-05 06:51 -11.03037 -175.05623 32840 ft 473 kts 44°
2026-05-05 06:51 -10.98591 -175.00688 32842 ft 473 kts 44°
2026-05-05 06:52 -10.94154 -174.95767 32840 ft 472 kts 44°
2026-05-05 06:52 -10.89710 -174.90839 32842 ft 472 kts 44°
2026-05-05 06:53 -10.85247 -174.85892 32845 ft 473 kts 44°
2026-05-05 06:53 -10.80803 -174.80969 32845 ft 473 kts 44°
2026-05-05 06:54 -10.76352 -174.76041 32845 ft 473 kts 44°
2026-05-05 06:54 -10.71911 -174.71124 32845 ft 473 kts 44°
2026-05-05 06:55 -10.67475 -174.66219 32846 ft 474 kts 44°
2026-05-05 06:55 -10.62989 -174.61256 32846 ft 474 kts 44°
2026-05-05 06:56 -10.58550 -174.56352 32847 ft 474 kts 44°
2026-05-05 06:56 -10.54083 -174.51417 32847 ft 473 kts 44°
2026-05-05 06:57 -10.49631 -174.46501 32847 ft 474 kts 44°
2026-05-05 06:57 -10.45150 -174.41554 32847 ft 474 kts 44°
2026-05-05 06:58 -10.40671 -174.36614 32848 ft 475 kts 44°
2026-05-05 06:58 -10.36206 -174.31691 32839 ft 475 kts 44°
2026-05-05 06:59 -10.31718 -174.26744 32841 ft 475 kts 44°
2026-05-05 06:59 -10.27253 -174.21825 32846 ft 474 kts 44°
2026-05-05 07:00 -10.22776 -174.16895 32851 ft 476 kts 44°
2026-05-05 07:00 -10.18310 -174.11978 32859 ft 476 kts 44°
2026-05-05 07:01 -10.13794 -174.07018 32862 ft 476 kts 44°
2026-05-05 07:01 -10.09260 -174.02118 32862 ft 476 kts 44°
2026-05-05 07:02 -10.04725 -173.97221 32863 ft 475 kts 44°
2026-05-05 07:02 -10.00208 -173.92345 32863 ft 476 kts 44°
2026-05-05 07:03 -9.95691 -173.87468 32864 ft 476 kts 44°
2026-05-05 07:03 -9.91165 -173.82584 32864 ft 477 kts 44°
2026-05-05 07:04 -9.86607 -173.77666 32865 ft 477 kts 44°
2026-05-05 07:04 -9.82075 -173.72778 32862 ft 476 kts 44°
2026-05-05 07:05 -9.77539 -173.67888 32859 ft 477 kts 44°
2026-05-05 07:05 -9.72987 -173.62982 32852 ft 476 kts 44°
2026-05-05 07:06 -9.68461 -173.58109 32850 ft 477 kts 44°
2026-05-05 07:06 -9.63905 -173.53203 32847 ft 476 kts 44°
2026-05-05 07:07 -9.59374 -173.48326 32846 ft 476 kts 44°
2026-05-05 07:07 -9.54836 -173.43445 32847 ft 476 kts 44°
2026-05-05 07:08 -9.50296 -173.38562 32848 ft 476 kts 44°
2026-05-05 07:08 -9.45748 -173.33675 32840 ft 476 kts 44°
2026-05-05 07:09 -9.41226 -173.28815 32840 ft 476 kts 44°
2026-05-05 07:09 -9.36673 -173.23926 32841 ft 475 kts 44°
2026-05-05 07:10 -9.32133 -173.19051 32841 ft 476 kts 44°
2026-05-05 07:10 -9.27596 -173.14183 32841 ft 476 kts 44°
2026-05-05 07:11 -9.23080 -173.09338 32842 ft 477 kts 44°
2026-05-05 07:11 -9.18533 -173.04462 32843 ft 476 kts 44°
2026-05-05 07:12 -9.13986 -172.99589 32842 ft 475 kts 44°
2026-05-05 07:12 -9.09460 -172.94740 32843 ft 476 kts 44°
2026-05-05 07:13 -9.04895 -172.89851 32844 ft 476 kts 44°
2026-05-05 07:13 -9.00365 -172.85001 32843 ft 475 kts 44°
2026-05-05 07:14 -8.95828 -172.80147 32845 ft 476 kts 44°
2026-05-05 07:14 -8.91282 -172.75284 32849 ft 475 kts 44°
2026-05-05 07:15 -8.86748 -172.70435 32856 ft 476 kts 44°
2026-05-05 07:15 -8.82204 -172.65578 32862 ft 475 kts 44°
2026-05-05 07:16 -8.77643 -172.60735 32865 ft 475 kts 44°
2026-05-05 07:16 -8.73072 -172.55896 32865 ft 474 kts 44°
2026-05-05 07:17 -8.68515 -172.51074 32867 ft 475 kts 44°
2026-05-05 07:17 -8.63965 -172.46260 32868 ft 474 kts 44°
2026-05-05 07:18 -8.59398 -172.41429 32868 ft 475 kts 44°
2026-05-05 07:18 -8.54842 -172.36612 32868 ft 474 kts 44°
2026-05-05 07:19 -8.50281 -172.31790 32861 ft 474 kts 44°
2026-05-05 07:19 -8.45744 -172.26996 32862 ft 475 kts 44°
2026-05-05 07:20 -8.41161 -172.22154 32861 ft 474 kts 44°
2026-05-05 07:20 -8.36605 -172.17343 32862 ft 474 kts 44°
2026-05-05 07:21 -8.32063 -172.12550 32857 ft 474 kts 44°
2026-05-05 07:21 -8.27497 -172.07732 32848 ft 474 kts 44°
2026-05-05 07:22 -8.22944 -172.02930 32844 ft 475 kts 44°
2026-05-05 07:22 -8.18364 -171.98100 32844 ft 476 kts 44°
2026-05-05 07:23 -8.13788 -171.93277 32842 ft 475 kts 44°
2026-05-05 07:23 -8.09224 -171.88467 32843 ft 474 kts 44°
2026-05-05 07:24 -8.04688 -171.83690 32843 ft 474 kts 44°
2026-05-05 07:24 -8.00111 -171.78871 32844 ft 474 kts 44°
2026-05-05 07:25 -7.95576 -171.74098 32845 ft 473 kts 44°
2026-05-05 07:25 -7.91022 -171.69305 32844 ft 471 kts 44°
2026-05-05 07:26 -7.86499 -171.64548 32848 ft 472 kts 44°
2026-05-05 07:26 -7.81932 -171.59746 32846 ft 472 kts 44°
2026-05-05 07:27 -7.77383 -171.54964 32847 ft 471 kts 44°
2026-05-05 07:27 -7.72854 -171.50205 32849 ft 472 kts 44°
2026-05-05 07:28 -7.68305 -171.45427 32847 ft 471 kts 44°
2026-05-05 07:28 -7.63769 -171.40663 32852 ft 471 kts 44°
2026-05-05 07:29 -7.59256 -171.35927 32857 ft 471 kts 44°
2026-05-05 07:29 -7.54715 -171.31160 32850 ft 470 kts 44°
2026-05-05 07:30 -7.50196 -171.26421 32850 ft 470 kts 44°
2026-05-05 07:30 -7.43388 -171.19281 32855 ft 469 kts 44°
2026-05-05 07:31 -7.38875 -171.14551 32851 ft 469 kts 44°
2026-05-05 07:31 -7.34364 -171.09822 32856 ft 469 kts 44°
2026-05-05 07:32 -7.29838 -171.05083 32859 ft 469 kts 44°
2026-05-05 07:32 -7.25328 -171.00359 32865 ft 469 kts 44°
2026-05-05 07:33 -7.20809 -170.95627 32864 ft 468 kts 44°
2026-05-05 07:33 -7.16295 -170.90903 32866 ft 468 kts 44°
2026-05-05 07:34 -7.11793 -170.86192 32867 ft 468 kts 44°
2026-05-05 07:34 -7.07267 -170.81459 32866 ft 468 kts 44°
2026-05-05 07:35 -7.02763 -170.76749 32863 ft 468 kts 44°
2026-05-05 07:35 -6.98246 -170.72028 32865 ft 468 kts 44°
2026-05-05 07:36 -6.93716 -170.67293 32864 ft 469 kts 44°
2026-05-05 07:36 -6.89196 -170.62572 32865 ft 468 kts 44°
2026-05-05 07:37 -6.84664 -170.57873 32865 ft 467 kts 44°
2026-05-05 07:37 -6.80124 -170.53194 32866 ft 467 kts 44°
2026-05-05 07:38 -6.75588 -170.48517 32864 ft 467 kts 44°
2026-05-05 07:38 -6.71038 -170.43826 32862 ft 467 kts 44°
2026-05-05 07:39 -6.66512 -170.39162 32857 ft 467 kts 44°
2026-05-05 07:39 -6.61981 -170.34492 32852 ft 467 kts 44°
2026-05-05 07:40 -6.57431 -170.29805 32844 ft 468 kts 44°
2026-05-05 07:40 -6.52901 -170.25139 32841 ft 467 kts 44°
2026-05-05 07:41 -6.48359 -170.20460 32841 ft 467 kts 44°
2026-05-05 07:41 -6.43819 -170.15787 32841 ft 467 kts 44°
2026-05-05 07:42 -6.39262 -170.11096 32842 ft 468 kts 44°
2026-05-05 07:42 -6.34728 -170.06432 32842 ft 467 kts 44°
2026-05-05 07:43 -6.30173 -170.01747 32842 ft 467 kts 44°
2026-05-05 07:43 -6.25640 -169.97084 32844 ft 468 kts 44°
2026-05-05 07:44 -6.21100 -169.92416 32841 ft 467 kts 44°
2026-05-05 07:44 -6.16561 -169.87752 32845 ft 467 kts 44°
2026-05-05 07:45 -6.12012 -169.83078 32848 ft 467 kts 44°
2026-05-05 07:45 -6.07451 -169.78392 32847 ft 467 kts 44°
2026-05-05 07:46 -6.02910 -169.73729 32854 ft 468 kts 44°
2026-05-05 07:46 -5.98372 -169.69069 32864 ft 468 kts 44°
2026-05-05 07:47 -5.93813 -169.64389 32863 ft 467 kts 44°
2026-05-05 07:47 -5.89279 -169.59737 32864 ft 468 kts 44°
2026-05-05 07:48 -5.84734 -169.55074 32862 ft 468 kts 44°
2026-05-05 07:48 -5.80172 -169.50394 32863 ft 468 kts 44°
2026-05-05 07:49 -5.75608 -169.45712 32865 ft 467 kts 44°
2026-05-05 07:49 -5.71057 -169.41048 32865 ft 468 kts 44°
2026-05-05 07:50 -5.66509 -169.36386 32865 ft 468 kts 44°
2026-05-05 07:50 -5.61946 -169.31709 32860 ft 468 kts 44°
2026-05-05 07:51 -5.57389 -169.27040 32862 ft 467 kts 44°
2026-05-05 07:51 -5.52858 -169.22400 32861 ft 467 kts 44°
2026-05-05 07:52 -5.48314 -169.17746 32860 ft 468 kts 44°
2026-05-05 07:52 -5.43752 -169.13077 32862 ft 469 kts 44°
2026-05-05 07:53 -5.39203 -169.08420 32861 ft 468 kts 44°
2026-05-05 07:53 -5.34630 -169.03742 32862 ft 470 kts 44°
2026-05-05 07:54 -5.30049 -168.99054 32861 ft 468 kts 44°
2026-05-05 07:54 -5.25493 -168.94394 32852 ft 467 kts 44°
2026-05-05 07:55 -5.20941 -168.89739 32850 ft 468 kts 44°
2026-05-05 07:55 -5.16374 -168.85069 32843 ft 468 kts 44°
2026-05-05 07:56 -5.11836 -168.80431 32846 ft 468 kts 44°
2026-05-05 07:56 -5.07261 -168.75755 32845 ft 469 kts 44°
2026-05-05 07:57 -5.02697 -168.71092 32846 ft 469 kts 44°
2026-05-05 07:57 -4.98130 -168.66429 32843 ft 469 kts 44°
2026-05-05 07:58 -4.93555 -168.61768 32849 ft 468 kts 44°
2026-05-05 07:58 -4.88995 -168.57123 32854 ft 467 kts 44°
2026-05-05 07:59 -4.84412 -168.52454 32860 ft 468 kts 44°
2026-05-05 07:59 -4.79874 -168.47833 32865 ft 467 kts 44°
2026-05-05 08:00 -4.75304 -168.43179 32864 ft 467 kts 44°
2026-05-05 08:00 -4.70769 -168.38564 32865 ft 467 kts 44°
2026-05-05 08:01 -4.66192 -168.33905 32863 ft 467 kts 44°
2026-05-05 08:01 -4.61625 -168.29257 32860 ft 467 kts 44°
2026-05-05 08:02 -4.57074 -168.24628 32861 ft 467 kts 44°
2026-05-05 08:02 -4.52510 -168.19984 32859 ft 467 kts 44°
2026-05-05 08:03 -4.47943 -168.15341 32862 ft 466 kts 44°
2026-05-05 08:03 -4.43399 -168.10721 32860 ft 466 kts 44°
2026-05-05 08:04 -4.38833 -168.06078 32860 ft 466 kts 45°
2026-05-05 08:04 -4.34308 -168.01480 32863 ft 466 kts 44°
2026-05-05 08:05 -4.29760 -167.96857 32862 ft 466 kts 45°
2026-05-05 08:05 -4.25187 -167.92210 32864 ft 468 kts 45°
2026-05-05 08:06 -4.20611 -167.87563 32865 ft 467 kts 45°
2026-05-05 08:06 -4.16066 -167.82945 32865 ft 467 kts 45°
2026-05-05 08:07 -4.11486 -167.78294 32866 ft 467 kts 45°
2026-05-05 08:07 -4.06935 -167.73674 32864 ft 467 kts 45°
2026-05-05 08:08 -4.02393 -167.69063 32866 ft 467 kts 45°
2026-05-05 08:08 -3.97838 -167.64441 32865 ft 466 kts 45°
2026-05-05 08:09 -3.93252 -167.59786 32868 ft 468 kts 45°
2026-05-05 08:09 -3.88704 -167.55171 32866 ft 468 kts 45°
2026-05-05 08:10 -3.84118 -167.50519 32857 ft 468 kts 45°
2026-05-05 08:10 -3.79546 -167.45882 32856 ft 467 kts 45°
2026-05-05 08:11 -3.74996 -167.41267 32856 ft 467 kts 45°
2026-05-05 08:11 -3.70415 -167.36623 32861 ft 468 kts 45°
2026-05-05 08:12 -3.65835 -167.31978 32865 ft 468 kts 45°
2026-05-05 08:12 -3.61267 -167.27348 32873 ft 468 kts 45°
2026-05-05 08:13 -3.56722 -167.22740 32878 ft 468 kts 45°
2026-05-05 08:13 -3.52159 -167.18117 32877 ft 467 kts 45°
2026-05-05 08:14 -3.47580 -167.13477 32868 ft 468 kts 45°
2026-05-05 08:14 -3.43007 -167.08844 32866 ft 468 kts 45°
2026-05-05 08:15 -3.38408 -167.04185 32867 ft 467 kts 45°
2026-05-05 08:15 -3.33860 -166.99579 32864 ft 468 kts 45°
2026-05-05 08:16 -3.29268 -166.94930 32863 ft 467 kts 45°
2026-05-05 08:16 -3.24703 -166.90308 32864 ft 468 kts 45°
2026-05-05 08:17 -3.20133 -166.85681 32863 ft 467 kts 45°
2026-05-05 08:17 -3.15578 -166.81071 32865 ft 467 kts 45°
2026-05-05 08:18 -3.10993 -166.76428 32864 ft 467 kts 45°
2026-05-05 08:18 -3.06425 -166.71805 32864 ft 467 kts 45°
2026-05-05 08:19 -3.01846 -166.67171 32866 ft 468 kts 45°
2026-05-05 08:19 -2.97280 -166.62552 32865 ft 466 kts 45°
2026-05-05 08:20 -2.92722 -166.57941 32865 ft 468 kts 45°
2026-05-05 08:20 -2.88151 -166.53317 32863 ft 468 kts 45°
2026-05-05 08:21 -2.83552 -166.48665 32863 ft 466 kts 45°
2026-05-05 08:21 -2.78983 -166.44046 32863 ft 467 kts 45°
2026-05-05 08:22 -2.74436 -166.39449 32865 ft 468 kts 45°
2026-05-05 08:22 -2.69844 -166.34808 32864 ft 467 kts 45°
2026-05-05 08:23 -2.65285 -166.30203 32862 ft 467 kts 45°
2026-05-05 08:23 -2.60703 -166.25575 32861 ft 468 kts 45°
2026-05-05 08:24 -2.56123 -166.20950 32863 ft 468 kts 45°
2026-05-05 08:24 -2.51560 -166.16344 32864 ft 467 kts 45°
2026-05-05 08:25 -2.46991 -166.11729 32868 ft 469 kts 45°
2026-05-05 08:25 -2.42390 -166.07085 32872 ft 469 kts 45°
2026-05-05 08:26 -2.37806 -166.02457 32880 ft 469 kts 45°
2026-05-05 08:26 -2.33183 -165.97790 32884 ft 470 kts 45°
2026-05-05 08:27 -2.28608 -165.93173 32884 ft 468 kts 45°
2026-05-05 08:27 -2.24008 -165.88531 32885 ft 469 kts 45°
2026-05-05 08:28 -2.19418 -165.83900 32884 ft 468 kts 45°
2026-05-05 08:28 -2.14832 -165.79272 32886 ft 469 kts 45°
2026-05-05 08:29 -2.10270 -165.74670 32885 ft 469 kts 45°
2026-05-05 08:30 -2.03351 -165.67691 32886 ft 469 kts 45°
2026-05-05 08:30 -1.98757 -165.63057 32886 ft 470 kts 45°
2026-05-05 08:31 -1.94156 -165.58417 32881 ft 470 kts 45°
2026-05-05 08:31 -1.89583 -165.53804 32875 ft 468 kts 45°
2026-05-05 08:32 -1.85003 -165.49185 32874 ft 468 kts 45°
2026-05-05 08:32 -1.80417 -165.44562 32874 ft 469 kts 45°
2026-05-05 08:33 -1.75801 -165.39908 32874 ft 468 kts 45°
2026-05-05 08:33 -1.71240 -165.35309 32871 ft 468 kts 45°
2026-05-05 08:34 -1.66650 -165.30682 32867 ft 468 kts 45°
2026-05-05 08:34 -1.62065 -165.26060 32864 ft 469 kts 45°
2026-05-05 08:35 -1.57492 -165.21451 32862 ft 468 kts 45°
2026-05-05 08:35 -1.52869 -165.16791 32863 ft 470 kts 45°
2026-05-05 08:36 -1.48283 -165.12169 32864 ft 469 kts 45°
2026-05-05 08:36 -1.43694 -165.07544 32863 ft 469 kts 45°
2026-05-05 08:37 -1.39108 -165.02924 32862 ft 468 kts 45°
2026-05-05 08:37 -1.34527 -164.98306 32862 ft 468 kts 45°
2026-05-05 08:38 -1.29959 -164.93704 32862 ft 468 kts 45°
2026-05-05 08:38 -1.25373 -164.89084 32861 ft 467 kts 45°
2026-05-05 08:39 -1.20783 -164.84460 32861 ft 470 kts 45°
2026-05-05 08:39 -1.16165 -164.79808 32865 ft 470 kts 45°
2026-05-05 08:40 -1.11600 -164.75209 32866 ft 468 kts 45°
2026-05-05 08:40 -1.06985 -164.70560 32864 ft 470 kts 45°
2026-05-05 08:41 -1.02410 -164.65951 32873 ft 468 kts 45°
2026-05-05 08:41 -0.97828 -164.61336 32882 ft 468 kts 45°
2026-05-05 08:42 -0.93233 -164.56708 32888 ft 468 kts 45°
2026-05-05 08:42 -0.88645 -164.52087 32884 ft 469 kts 45°
2026-05-05 08:43 -0.84042 -164.47452 32886 ft 468 kts 45°
2026-05-05 08:43 -0.79460 -164.42836 32887 ft 469 kts 45°
2026-05-05 08:44 -0.74870 -164.38214 32886 ft 467 kts 45°
2026-05-05 08:44 -0.70301 -164.33630 32885 ft 467 kts 45°
2026-05-05 08:45 -0.65691 -164.29025 32885 ft 467 kts 45°
2026-05-05 08:45 -0.61101 -164.24438 32887 ft 466 kts 45°
2026-05-05 08:46 -0.56507 -164.19849 32882 ft 466 kts 45°
2026-05-05 08:46 -0.51945 -164.15289 32884 ft 466 kts 45°
2026-05-05 08:47 -0.47348 -164.10695 32884 ft 466 kts 45°
2026-05-05 08:47 -0.42759 -164.06108 32884 ft 466 kts 45°
2026-05-05 08:48 -0.38188 -164.01541 32879 ft 465 kts 45°
2026-05-05 08:48 -0.33618 -163.96974 32878 ft 465 kts 45°
2026-05-05 08:49 -0.29043 -163.92401 32873 ft 464 kts 45°
2026-05-05 08:49 -0.24455 -163.87817 32867 ft 465 kts 45°
2026-05-05 08:50 -0.19895 -163.83261 32866 ft 465 kts 45°
2026-05-05 08:50 -0.15327 -163.78696 32868 ft 466 kts 45°
2026-05-05 08:51 -0.10721 -163.74092 32871 ft 466 kts 45°
2026-05-05 08:51 -0.06144 -163.69519 32870 ft 466 kts 45°
2026-05-05 08:52 -0.01594 -163.64972 32868 ft 465 kts 45°
2026-05-05 08:52 0.03005 -163.60376 32872 ft 465 kts 45°
2026-05-05 08:53 0.07560 -163.55824 32870 ft 465 kts 45°
2026-05-05 08:53 0.12131 -163.51256 32863 ft 465 kts 45°
2026-05-05 08:54 0.16711 -163.46680 32864 ft 467 kts 45°
2026-05-05 08:54 0.21323 -163.42072 32863 ft 467 kts 45°
2026-05-05 08:55 0.25911 -163.37485 32863 ft 466 kts 45°
2026-05-05 08:55 0.30504 -163.32896 32862 ft 466 kts 45°
2026-05-05 08:56 0.35082 -163.28320 32870 ft 465 kts 45°
2026-05-05 08:56 0.39633 -163.23773 32880 ft 465 kts 45°
2026-05-05 08:57 0.44211 -163.19199 32883 ft 466 kts 45°
2026-05-05 08:57 0.48814 -163.14598 32883 ft 467 kts 45°
2026-05-05 08:58 0.53398 -163.10016 32885 ft 468 kts 45°
2026-05-05 08:58 0.58024 -163.05392 32882 ft 467 kts 45°
2026-05-05 08:59 0.62595 -163.00824 32884 ft 467 kts 45°
2026-05-05 08:59 0.67193 -162.96228 32886 ft 466 kts 45°
2026-05-05 09:00 0.71753 -162.91670 32884 ft 466 kts 45°
2026-05-05 09:00 0.76345 -162.87082 32884 ft 465 kts 45°
2026-05-05 09:01 0.80961 -162.82466 32885 ft 468 kts 45°
2026-05-05 09:01 0.85557 -162.77873 32885 ft 468 kts 45°
2026-05-05 09:02 0.90161 -162.73270 32886 ft 468 kts 45°
2026-05-05 09:02 0.94745 -162.68687 32884 ft 468 kts 45°
2026-05-05 09:03 0.99355 -162.64079 32888 ft 468 kts 45°
2026-05-05 09:03 1.03955 -162.59480 32892 ft 470 kts 45°
2026-05-05 09:04 1.08607 -162.54829 32896 ft 471 kts 45°
2026-05-05 09:04 1.13222 -162.50215 32894 ft 471 kts 45°
2026-05-05 09:05 1.17874 -162.45563 32896 ft 471 kts 45°
2026-05-05 09:05 1.22493 -162.40944 32895 ft 472 kts 45°
2026-05-05 09:06 1.27144 -162.36293 32899 ft 472 kts 45°
2026-05-05 09:06 1.31777 -162.31659 32897 ft 472 kts 45°
2026-05-05 09:07 1.36406 -162.27031 32890 ft 472 kts 45°
2026-05-05 09:07 1.41074 -162.22360 32885 ft 473 kts 45°
2026-05-05 09:08 1.45713 -162.17722 32883 ft 473 kts 45°
2026-05-05 09:08 1.50378 -162.13054 32883 ft 474 kts 45°
2026-05-05 09:09 1.55026 -162.08406 32883 ft 473 kts 45°
2026-05-05 09:09 1.59684 -162.03744 32884 ft 473 kts 45°
2026-05-05 09:10 1.64331 -161.99097 32888 ft 474 kts 45°
2026-05-05 09:10 1.68972 -161.94452 32892 ft 474 kts 45°
2026-05-05 09:11 1.73646 -161.89775 32882 ft 474 kts 45°
2026-05-05 09:11 1.78296 -161.85121 32872 ft 474 kts 45°
2026-05-05 09:12 1.82951 -161.80463 32875 ft 475 kts 45°
2026-05-05 09:12 1.87628 -161.75783 32884 ft 474 kts 45°
2026-05-05 09:13 1.92294 -161.71112 32885 ft 475 kts 45°
2026-05-05 09:13 1.96970 -161.66431 32887 ft 475 kts 45°
2026-05-05 09:14 2.01618 -161.61778 32887 ft 474 kts 45°
2026-05-05 09:14 2.06286 -161.57104 32888 ft 475 kts 45°
2026-05-05 09:15 2.10948 -161.52435 32885 ft 473 kts 45°
2026-05-05 09:15 2.15605 -161.47772 32884 ft 474 kts 45°
2026-05-05 09:16 2.20278 -161.43092 32885 ft 475 kts 45°
2026-05-05 09:16 2.24931 -161.38432 32885 ft 475 kts 45°
2026-05-05 09:17 2.29605 -161.33751 32883 ft 475 kts 45°
2026-05-05 09:17 2.34275 -161.29073 32881 ft 474 kts 45°
2026-05-05 09:18 2.38939 -161.24399 32881 ft 473 kts 45°
2026-05-05 09:18 2.43616 -161.19759 32884 ft 473 kts 44°
2026-05-05 09:19 2.48383 -161.15205 32883 ft 473 kts 44°
2026-05-05 09:19 2.53139 -161.10660 32884 ft 474 kts 44°
2026-05-05 09:20 2.57884 -161.06117 32883 ft 474 kts 44°
2026-05-05 09:20 2.62631 -161.01572 32884 ft 474 kts 44°
2026-05-05 09:21 2.67408 -160.96992 32889 ft 473 kts 43°
2026-05-05 09:21 2.72152 -160.92445 32892 ft 473 kts 44°
2026-05-05 09:22 2.76904 -160.87889 32890 ft 472 kts 44°
2026-05-05 09:22 2.81622 -160.83365 32887 ft 471 kts 44°
2026-05-05 09:23 2.86370 -160.78812 32890 ft 472 kts 44°
2026-05-05 09:23 2.91108 -160.74269 32893 ft 473 kts 44°
2026-05-05 09:24 2.95869 -160.69705 32892 ft 472 kts 44°
2026-05-05 09:24 3.00603 -160.65164 32895 ft 472 kts 43°
2026-05-05 09:25 3.05341 -160.60619 32891 ft 472 kts 43°
2026-05-05 09:25 3.10092 -160.56061 32887 ft 472 kts 43°
2026-05-05 09:26 3.14827 -160.51515 32882 ft 473 kts 44°
2026-05-05 09:26 3.19563 -160.46970 32883 ft 472 kts 44°
2026-05-05 09:27 3.24321 -160.42401 32884 ft 474 kts 44°
2026-05-05 09:27 3.29083 -160.37828 32883 ft 473 kts 44°
2026-05-05 09:28 3.33824 -160.33276 32878 ft 474 kts 44°
2026-05-05 09:28 3.38559 -160.28728 32883 ft 474 kts 43°
2026-05-05 09:29 3.43336 -160.24138 32882 ft 475 kts 43°
2026-05-05 09:29 3.48087 -160.19574 32883 ft 474 kts 43°
2026-05-05 09:30 3.52874 -160.14973 32883 ft 475 kts 43°
2026-05-05 09:30 3.57637 -160.10396 32882 ft 475 kts 43°
2026-05-05 09:31 3.62399 -160.05818 32890 ft 476 kts 43°
2026-05-05 09:31 3.67150 -160.01251 32888 ft 474 kts 43°
2026-05-05 09:32 3.71937 -159.96649 32884 ft 475 kts 43°
2026-05-05 09:32 3.76682 -159.92085 32885 ft 474 kts 43°
2026-05-05 09:33 3.81457 -159.87494 32884 ft 475 kts 43°
2026-05-05 09:33 3.86227 -159.82904 32886 ft 476 kts 43°
2026-05-05 09:34 3.90992 -159.78320 32886 ft 476 kts 43°
2026-05-05 09:34 3.95753 -159.73738 32886 ft 476 kts 43°
2026-05-05 09:35 4.00533 -159.69139 32884 ft 476 kts 43°
2026-05-05 09:35 4.07680 -159.62259 32884 ft 475 kts 43°
2026-05-05 09:36 4.12432 -159.57683 32885 ft 475 kts 43°
2026-05-05 09:36 4.17199 -159.53091 32885 ft 475 kts 43°
2026-05-05 09:37 4.21962 -159.48505 32883 ft 474 kts 43°
2026-05-05 09:37 4.26734 -159.43907 32882 ft 474 kts 43°
2026-05-05 09:38 4.31475 -159.39339 32887 ft 477 kts 43°
2026-05-05 09:38 4.36264 -159.34723 32885 ft 475 kts 43°
2026-05-05 09:39 4.41028 -159.30131 32881 ft 474 kts 43°
2026-05-05 09:39 4.45770 -159.25560 32878 ft 473 kts 43°
2026-05-05 09:40 4.50498 -159.21001 32869 ft 474 kts 43°
2026-05-05 09:40 4.55254 -159.16414 32864 ft 474 kts 43°
2026-05-05 09:41 4.60005 -159.11832 32869 ft 474 kts 43°
2026-05-05 09:41 4.64735 -159.07268 32872 ft 474 kts 43°
2026-05-05 09:42 4.69513 -159.02657 32878 ft 474 kts 43°
2026-05-05 09:42 4.74263 -158.98071 32884 ft 474 kts 43°
2026-05-05 09:43 4.78995 -158.93503 32882 ft 472 kts 43°
2026-05-05 09:43 4.83719 -158.88942 32881 ft 472 kts 43°
2026-05-05 09:44 4.88455 -158.84369 32881 ft 473 kts 43°
2026-05-05 09:44 4.93199 -158.79785 32886 ft 472 kts 43°
2026-05-05 09:45 4.97917 -158.75226 32884 ft 473 kts 43°
2026-05-05 09:45 5.02670 -158.70633 32884 ft 473 kts 43°
2026-05-05 09:46 5.07397 -158.66064 32886 ft 472 kts 43°
2026-05-05 09:46 5.12117 -158.61500 32885 ft 473 kts 43°
2026-05-05 09:47 5.16863 -158.56911 32885 ft 472 kts 43°
2026-05-05 09:47 5.21596 -158.52333 32885 ft 472 kts 43°
2026-05-05 09:48 5.26333 -158.47751 32887 ft 473 kts 43°
2026-05-05 09:48 5.31066 -158.43170 32887 ft 473 kts 43°
2026-05-05 09:49 5.35797 -158.38591 32885 ft 472 kts 43°
2026-05-05 09:49 5.40525 -158.34013 32884 ft 473 kts 43°
2026-05-05 09:50 5.45249 -158.29440 32883 ft 473 kts 43°
2026-05-05 09:50 5.49996 -158.24843 32883 ft 474 kts 43°
2026-05-05 09:51 5.54755 -158.20232 32885 ft 475 kts 44°
2026-05-05 09:51 5.59516 -158.15619 32880 ft 475 kts 44°
2026-05-05 09:52 5.64274 -158.11006 32886 ft 475 kts 44°
2026-05-05 09:52 5.69036 -158.06390 32885 ft 476 kts 43°
2026-05-05 09:53 5.73797 -158.01775 32888 ft 476 kts 44°
2026-05-05 09:53 5.78547 -157.97166 32887 ft 475 kts 44°
2026-05-05 09:54 5.83304 -157.92552 32885 ft 476 kts 44°
2026-05-05 09:54 5.88036 -157.87959 32891 ft 477 kts 44°
2026-05-05 09:55 5.92801 -157.83334 32898 ft 476 kts 44°
2026-05-05 09:55 5.97569 -157.78705 32907 ft 477 kts 44°
2026-05-05 09:56 6.02348 -157.74063 32907 ft 478 kts 44°
2026-05-05 09:56 6.07131 -157.69417 32905 ft 476 kts 44°
2026-05-05 09:57 6.11883 -157.64800 32894 ft 475 kts 44°
2026-05-05 09:57 6.16653 -157.60181 32893 ft 474 kts 44°
2026-05-05 09:58 6.21393 -157.55589 32891 ft 475 kts 44°
2026-05-05 09:58 6.26143 -157.50989 32889 ft 474 kts 44°
2026-05-05 09:59 6.30896 -157.46384 32890 ft 474 kts 44°
2026-05-05 09:59 6.35662 -157.41765 32888 ft 473 kts 44°
2026-05-05 10:00 6.40401 -157.37170 32887 ft 474 kts 44°
2026-05-05 10:00 6.45148 -157.32565 32881 ft 474 kts 44°
2026-05-05 10:01 6.49899 -157.27957 32883 ft 475 kts 44°
2026-05-05 10:01 6.54640 -157.23357 32883 ft 474 kts 44°
2026-05-05 10:02 6.59398 -157.18738 32882 ft 474 kts 44°
2026-05-05 10:02 6.64130 -157.14143 32884 ft 475 kts 44°
2026-05-05 10:03 6.68875 -157.09537 32884 ft 474 kts 44°
2026-05-05 10:03 6.73644 -157.04903 32885 ft 475 kts 44°
2026-05-05 10:04 6.78401 -157.00281 32885 ft 474 kts 44°
2026-05-05 10:04 6.83147 -156.95668 32885 ft 474 kts 44°
2026-05-05 10:05 6.87887 -156.91058 32885 ft 474 kts 44°
2026-05-05 10:05 6.92626 -156.86450 32885 ft 474 kts 44°
2026-05-05 10:06 6.97370 -156.81834 32888 ft 474 kts 44°
2026-05-05 10:06 7.02098 -156.77232 32892 ft 474 kts 44°
2026-05-05 10:07 7.06858 -156.72600 32893 ft 474 kts 44°
2026-05-05 10:07 7.11579 -156.68002 32894 ft 474 kts 44°
2026-05-05 10:08 7.16309 -156.63396 32900 ft 473 kts 44°
2026-05-05 10:08 7.21052 -156.58774 32905 ft 473 kts 44°
2026-05-05 10:09 7.25767 -156.54178 32905 ft 473 kts 44°
2026-05-05 10:09 7.30502 -156.49583 32906 ft 473 kts 43°
2026-05-05 10:10 7.35270 -156.45023 32905 ft 472 kts 43°
2026-05-05 10:10 7.40048 -156.40446 32906 ft 473 kts 43°
2026-05-05 10:11 7.44813 -156.35881 32907 ft 473 kts 43°
2026-05-05 10:11 7.49571 -156.31319 32903 ft 473 kts 43°
2026-05-05 10:12 7.54325 -156.26759 32903 ft 472 kts 43°
2026-05-05 10:12 7.59086 -156.22191 32904 ft 473 kts 43°
2026-05-05 10:13 7.63843 -156.17624 32904 ft 472 kts 44°
2026-05-05 10:13 7.68597 -156.13060 32904 ft 471 kts 44°
2026-05-05 10:14 7.73333 -156.08510 32905 ft 472 kts 44°
2026-05-05 10:14 7.78096 -156.03934 32905 ft 471 kts 44°
2026-05-05 10:15 7.82847 -155.99367 32904 ft 472 kts 43°
2026-05-05 10:15 7.87589 -155.94807 32904 ft 472 kts 43°
2026-05-05 10:16 7.92345 -155.90233 32901 ft 472 kts 43°
2026-05-05 10:16 7.97091 -155.85667 32900 ft 473 kts 43°
2026-05-05 10:17 8.01843 -155.81093 32892 ft 472 kts 43°
2026-05-05 10:17 8.06593 -155.76520 32890 ft 471 kts 43°
2026-05-05 10:18 8.11330 -155.71957 32886 ft 473 kts 43°
2026-05-05 10:18 8.16102 -155.67360 32888 ft 473 kts 43°
2026-05-05 10:19 8.20843 -155.62790 32889 ft 472 kts 43°
2026-05-05 10:19 8.25607 -155.58197 32887 ft 472 kts 43°
2026-05-05 10:20 8.30357 -155.53616 32888 ft 473 kts 43°
2026-05-05 10:20 8.35116 -155.49025 32890 ft 472 kts 43°
2026-05-05 10:21 8.39860 -155.44446 32894 ft 473 kts 43°
2026-05-05 10:21 8.44616 -155.39853 32895 ft 473 kts 43°
2026-05-05 10:22 8.49382 -155.35249 32897 ft 474 kts 43°
2026-05-05 10:22 8.54148 -155.30646 32892 ft 475 kts 43°
2026-05-05 10:23 8.58941 -155.26013 32897 ft 475 kts 43°
2026-05-05 10:23 8.63696 -155.21416 32898 ft 476 kts 43°
2026-05-05 10:24 8.68478 -155.16791 32899 ft 475 kts 43°
2026-05-05 10:24 8.73264 -155.12158 32899 ft 475 kts 43°
2026-05-05 10:25 8.78021 -155.07555 32902 ft 476 kts 43°
2026-05-05 10:25 8.82798 -155.02928 32904 ft 476 kts 43°
2026-05-05 10:26 8.87584 -154.98292 32904 ft 476 kts 43°
2026-05-05 10:26 8.92374 -154.93651 32906 ft 479 kts 43°
2026-05-05 10:27 8.97182 -154.88989 32906 ft 478 kts 43°
2026-05-05 10:27 9.01974 -154.84341 32907 ft 478 kts 43°
2026-05-05 10:28 9.06768 -154.79691 32907 ft 476 kts 43°
2026-05-05 10:28 9.11547 -154.75052 32903 ft 475 kts 43°
2026-05-05 10:29 9.16318 -154.70419 32904 ft 476 kts 43°
2026-05-05 10:29 9.21102 -154.65773 32905 ft 476 kts 43°
2026-05-05 10:30 9.25896 -154.61114 32905 ft 475 kts 43°
2026-05-05 10:30 9.30660 -154.56483 32906 ft 477 kts 43°
2026-05-05 10:31 9.35435 -154.51840 32906 ft 476 kts 43°
2026-05-05 10:31 9.40224 -154.47180 32907 ft 476 kts 43°
2026-05-05 10:32 9.44986 -154.42546 32906 ft 476 kts 43°
2026-05-05 10:32 9.49778 -154.37880 32906 ft 476 kts 43°
2026-05-05 10:33 9.54543 -154.33238 32896 ft 476 kts 43°
2026-05-05 10:33 9.59293 -154.28609 32894 ft 476 kts 43°
2026-05-05 10:34 9.64067 -154.23956 32894 ft 476 kts 43°
2026-05-05 10:34 9.68856 -154.19286 32896 ft 476 kts 43°
2026-05-05 10:35 9.73630 -154.14627 32898 ft 478 kts 43°
2026-05-05 10:35 9.78396 -154.09976 32899 ft 476 kts 43°
2026-05-05 10:36 9.83178 -154.05306 32901 ft 477 kts 43°
2026-05-05 10:36 9.87967 -154.00627 32899 ft 477 kts 43°
2026-05-05 10:37 9.92729 -153.95973 32891 ft 476 kts 43°
2026-05-05 10:37 9.97510 -153.91299 32890 ft 476 kts 43°
2026-05-05 10:38 10.02279 -153.86638 32902 ft 477 kts 43°
2026-05-05 10:38 10.07053 -153.81964 32908 ft 477 kts 43°
2026-05-05 10:39 10.11818 -153.77298 32906 ft 477 kts 43°
2026-05-05 10:39 10.16595 -153.72620 32910 ft 477 kts 43°
2026-05-05 10:40 10.21395 -153.67915 32909 ft 478 kts 43°
2026-05-05 10:40 10.26167 -153.63237 32911 ft 478 kts 43°
2026-05-05 10:41 10.30936 -153.58560 32912 ft 477 kts 43°
2026-05-05 10:41 10.35735 -153.53851 32912 ft 477 kts 43°
2026-05-05 10:42 10.42886 -153.46831 32916 ft 478 kts 43°
2026-05-05 10:43 10.47657 -153.42145 32917 ft 477 kts 43°
2026-05-05 10:43 10.52459 -153.37425 32918 ft 478 kts 43°
2026-05-05 10:44 10.57206 -153.32759 32909 ft 478 kts 43°
2026-05-05 10:44 10.61988 -153.27989 32903 ft 478 kts 45°
2026-05-05 10:45 10.66576 -153.23138 32904 ft 479 kts 45°
2026-05-05 10:45 10.71188 -153.18265 32905 ft 479 kts 45°
2026-05-05 10:46 10.75826 -153.13371 32904 ft 479 kts 45°
2026-05-05 10:46 10.80461 -153.08484 32905 ft 479 kts 45°
2026-05-05 10:47 10.85087 -153.03607 32905 ft 478 kts 45°
2026-05-05 10:47 10.89689 -152.98753 32905 ft 478 kts 45°
2026-05-05 10:48 10.94315 -152.93874 32906 ft 479 kts 45°
2026-05-05 10:48 10.98950 -152.88982 32907 ft 479 kts 45°
2026-05-05 10:49 11.03556 -152.84119 32908 ft 480 kts 45°
2026-05-05 10:49 11.08214 -152.79198 32913 ft 481 kts 45°
2026-05-05 10:50 11.12833 -152.74316 32912 ft 480 kts 45°
2026-05-05 10:50 11.17473 -152.69411 32911 ft 479 kts 45°
2026-05-05 10:51 11.22086 -152.64533 32912 ft 480 kts 45°
2026-05-05 10:51 11.26730 -152.59619 32916 ft 480 kts 45°
2026-05-05 10:52 11.31344 -152.54733 32919 ft 481 kts 45°
2026-05-05 10:52 11.35994 -152.49806 32923 ft 481 kts 45°
2026-05-05 10:53 11.40615 -152.44907 32919 ft 480 kts 45°
2026-05-05 10:53 11.45234 -152.40008 32926 ft 480 kts 45°
2026-05-05 10:54 11.49846 -152.35115 32932 ft 481 kts 45°
2026-05-05 10:54 11.54508 -152.30165 32925 ft 481 kts 45°
2026-05-05 10:55 11.59116 -152.25272 32926 ft 482 kts 45°
2026-05-05 10:55 11.63763 -152.20334 32935 ft 481 kts 45°
2026-05-05 10:56 11.68405 -152.15398 32932 ft 482 kts 45°
2026-05-05 10:56 11.73024 -152.10484 32924 ft 481 kts 45°
2026-05-05 10:57 11.77676 -152.05534 32926 ft 482 kts 45°
2026-05-05 10:57 11.82318 -152.00592 32927 ft 483 kts 45°
2026-05-05 10:58 11.86955 -151.95651 32929 ft 483 kts 45°
2026-05-05 10:58 11.91609 -151.90691 32928 ft 483 kts 45°
2026-05-05 10:59 11.96238 -151.85754 32928 ft 483 kts 45°
2026-05-05 10:59 12.00884 -151.80797 32930 ft 481 kts 45°
2026-05-05 11:00 12.05486 -151.75882 32934 ft 481 kts 45°
2026-05-05 11:00 12.10145 -151.70908 32929 ft 481 kts 45°
2026-05-05 11:01 12.14771 -151.65959 32929 ft 482 kts 45°
2026-05-05 11:01 12.19396 -151.61011 32933 ft 483 kts 45°
2026-05-05 11:02 12.24005 -151.56079 32934 ft 484 kts 45°
2026-05-05 11:02 12.28654 -151.51100 32934 ft 483 kts 45°
2026-05-05 11:03 12.33300 -151.46124 32935 ft 482 kts 45°
2026-05-05 11:03 12.37932 -151.41161 32940 ft 484 kts 45°
2026-05-05 11:04 12.42568 -151.36189 32940 ft 483 kts 45°
2026-05-05 11:04 12.47209 -151.31210 32932 ft 482 kts 45°
2026-05-05 11:05 12.51842 -151.26237 32932 ft 483 kts 45°
2026-05-05 11:05 12.56438 -151.21300 32934 ft 482 kts 45°
2026-05-05 11:06 12.61063 -151.16330 32936 ft 482 kts 45°
2026-05-05 11:06 12.65698 -151.11345 32939 ft 483 kts 45°
2026-05-05 11:07 12.70341 -151.06351 32942 ft 483 kts 45°
2026-05-05 11:07 12.74956 -151.01384 32955 ft 484 kts 45°
2026-05-05 11:08 12.79620 -150.96359 32959 ft 484 kts 45°
2026-05-05 11:08 12.84250 -150.91370 32958 ft 484 kts 45°
2026-05-05 11:09 12.88868 -150.86391 32962 ft 483 kts 44°
2026-05-05 11:09 12.93504 -150.81389 32961 ft 484 kts 44°
2026-05-05 11:10 12.98162 -150.76360 32964 ft 484 kts 44°
2026-05-05 11:10 13.02771 -150.71382 32968 ft 483 kts 45°
2026-05-05 11:11 13.07384 -150.66396 32971 ft 483 kts 44°
2026-05-05 11:11 13.12007 -150.61397 32968 ft 483 kts 44°
2026-05-05 11:12 13.16660 -150.56361 32971 ft 485 kts 44°
2026-05-05 11:12 13.21287 -150.51350 32967 ft 483 kts 44°
2026-05-05 11:13 13.25903 -150.46350 32971 ft 484 kts 44°
2026-05-05 11:13 13.30538 -150.41325 32971 ft 484 kts 44°
2026-05-05 11:14 13.35166 -150.36307 32973 ft 484 kts 44°
2026-05-05 11:14 13.39787 -150.31291 32959 ft 483 kts 44°
2026-05-05 11:15 13.44412 -150.26270 32959 ft 484 kts 44°
2026-05-05 11:15 13.49015 -150.21268 32962 ft 484 kts 44°
2026-05-05 11:16 13.53659 -150.16219 32964 ft 484 kts 44°
2026-05-05 11:16 13.58276 -150.11195 32961 ft 483 kts 44°
2026-05-05 11:17 13.62881 -150.06183 32962 ft 484 kts 44°
2026-05-05 11:17 13.67519 -150.01131 32961 ft 485 kts 44°
2026-05-05 11:18 13.72142 -149.96092 32964 ft 485 kts 44°
2026-05-05 11:18 13.76763 -149.91054 32962 ft 486 kts 44°
2026-05-05 11:19 13.81400 -149.85992 32967 ft 486 kts 44°
2026-05-05 11:19 13.86035 -149.80933 32968 ft 486 kts 44°
2026-05-05 11:20 13.90678 -149.75859 32968 ft 485 kts 44°
2026-05-05 11:20 13.95267 -149.70842 32966 ft 484 kts 44°
2026-05-05 11:21 13.99883 -149.65791 32972 ft 486 kts 44°
2026-05-05 11:21 14.04528 -149.60707 32971 ft 486 kts 44°
2026-05-05 11:22 14.09139 -149.55656 32972 ft 485 kts 44°
2026-05-05 11:22 14.13764 -149.50588 32970 ft 487 kts 44°
2026-05-05 11:23 14.18425 -149.45476 32971 ft 487 kts 44°
2026-05-05 11:23 14.23037 -149.40414 32972 ft 487 kts 44°
2026-05-05 11:24 14.27668 -149.35329 32973 ft 486 kts 44°
2026-05-05 11:24 14.32302 -149.30237 32963 ft 486 kts 44°
2026-05-05 11:25 14.36916 -149.25163 32963 ft 488 kts 44°
2026-05-05 11:25 14.41569 -149.20044 32964 ft 488 kts 44°
2026-05-05 11:26 14.46211 -149.14932 32964 ft 487 kts 44°
2026-05-05 11:26 14.50819 -149.09856 32965 ft 488 kts 44°
2026-05-05 11:27 14.55459 -149.04741 32966 ft 488 kts 44°
2026-05-05 11:27 14.60082 -148.99641 32967 ft 488 kts 44°
2026-05-05 11:28 14.64744 -148.94495 32968 ft 489 kts 44°
2026-05-05 11:28 14.69368 -148.89388 32968 ft 488 kts 44°
2026-05-05 11:29 14.73916 -148.84209 32969 ft 489 kts 48°
2026-05-05 11:29 14.78120 -148.78662 32969 ft 490 kts 49°
2026-05-05 11:30 14.82311 -148.73091 32969 ft 490 kts 49°
2026-05-05 11:30 14.86495 -148.67529 32971 ft 492 kts 49°
2026-05-05 11:31 14.90678 -148.61964 32972 ft 493 kts 49°
2026-05-05 11:31 14.94868 -148.56387 32975 ft 494 kts 49°
2026-05-05 11:32 14.99078 -148.50780 32973 ft 493 kts 49°
2026-05-05 11:32 15.03267 -148.45197 32978 ft 492 kts 49°
2026-05-05 11:33 15.07470 -148.39590 32973 ft 492 kts 49°
2026-05-05 11:33 15.11642 -148.34021 32975 ft 493 kts 49°
2026-05-05 11:34 15.15847 -148.28406 32972 ft 493 kts 49°
2026-05-05 11:34 15.20061 -148.22774 32967 ft 493 kts 49°
2026-05-05 11:35 15.24241 -148.17181 32975 ft 494 kts 49°
2026-05-05 11:35 15.28447 -148.11551 32981 ft 494 kts 49°
2026-05-05 11:36 15.32652 -148.05917 32985 ft 494 kts 49°
2026-05-05 11:36 15.36865 -148.00270 32998 ft 496 kts 49°
2026-05-05 11:37 15.41064 -147.94636 32999 ft 495 kts 49°
2026-05-05 11:37 15.45278 -147.88980 32998 ft 496 kts 49°
2026-05-05 11:38 15.49453 -147.83369 32996 ft 495 kts 49°
2026-05-05 11:38 15.53651 -147.77725 32992 ft 494 kts 49°
2026-05-05 11:39 15.57854 -147.72070 32997 ft 496 kts 49°
2026-05-05 11:39 15.62061 -147.66405 32995 ft 496 kts 49°
2026-05-05 11:40 15.66279 -147.60721 32998 ft 496 kts 49°
2026-05-05 11:40 15.70470 -147.55069 33002 ft 498 kts 49°
2026-05-05 11:41 15.74690 -147.49373 33003 ft 496 kts 49°
2026-05-05 11:41 15.78905 -147.43680 33004 ft 496 kts 49°
2026-05-05 11:42 15.83099 -147.38010 33007 ft 496 kts 49°
2026-05-05 11:42 15.87285 -147.32349 32994 ft 496 kts 49°
2026-05-05 11:43 15.91495 -147.26648 32993 ft 496 kts 49°
2026-05-05 11:43 15.95675 -147.20985 32986 ft 497 kts 49°
2026-05-05 11:44 15.99899 -147.15259 32987 ft 497 kts 49°
2026-05-05 11:44 16.04089 -147.09572 32988 ft 497 kts 49°
2026-05-05 11:45 16.08285 -147.03873 32988 ft 498 kts 49°
2026-05-05 11:45 16.12505 -146.98138 32987 ft 498 kts 49°
2026-05-05 11:46 16.16703 -146.92427 32991 ft 499 kts 49°
2026-05-05 11:46 16.20895 -146.86722 32995 ft 498 kts 49°
2026-05-05 11:47 16.25127 -146.80957 32994 ft 500 kts 49°
2026-05-05 11:47 16.29333 -146.75221 32996 ft 499 kts 49°
2026-05-05 11:48 16.35622 -146.66638 33000 ft 500 kts 49°
2026-05-05 11:48 16.39831 -146.60889 33000 ft 499 kts 49°
2026-05-05 11:49 16.44031 -146.55148 33002 ft 500 kts 49°
2026-05-05 11:49 16.48260 -146.49361 33007 ft 501 kts 49°
2026-05-05 11:50 16.52481 -146.43581 33004 ft 501 kts 49°
2026-05-05 11:50 16.56695 -146.37805 33011 ft 501 kts 48°
2026-05-05 11:51 16.60913 -146.32019 32995 ft 502 kts 49°
2026-05-05 11:51 16.65108 -146.26259 32994 ft 501 kts 49°
2026-05-05 11:52 16.69333 -146.20456 32997 ft 503 kts 49°
2026-05-05 11:52 16.73566 -146.14635 32999 ft 504 kts 49°
2026-05-05 11:53 16.77810 -146.08795 33002 ft 504 kts 48°
2026-05-05 11:53 16.82038 -146.02971 33002 ft 505 kts 49°
2026-05-05 11:54 16.86278 -145.97127 33003 ft 504 kts 49°
2026-05-05 11:54 16.90508 -145.91290 33008 ft 505 kts 48°
2026-05-05 11:55 16.94713 -145.85483 33008 ft 504 kts 49°
2026-05-05 11:55 16.98971 -145.79601 33009 ft 504 kts 48°
2026-05-05 11:56 17.03163 -145.73801 33013 ft 504 kts 48°
2026-05-05 11:56 17.07394 -145.67944 33015 ft 504 kts 49°
2026-05-05 11:57 17.11646 -145.62054 33015 ft 507 kts 49°
2026-05-05 11:57 17.15860 -145.56210 33020 ft 506 kts 49°
2026-05-05 11:58 17.20110 -145.50311 33020 ft 505 kts 49°
2026-05-05 11:58 17.24331 -145.44447 33020 ft 506 kts 48°
2026-05-05 11:59 17.28551 -145.38582 33026 ft 509 kts 49°
2026-05-05 11:59 17.32792 -145.32680 33006 ft 507 kts 49°
2026-05-05 12:00 17.37038 -145.26767 33009 ft 507 kts 49°
2026-05-05 12:00 17.41261 -145.20880 33010 ft 507 kts 49°
2026-05-05 12:01 17.45503 -145.14963 33014 ft 508 kts 49°
2026-05-05 12:01 17.49605 -145.08946 33013 ft 511 kts 52°
2026-05-05 12:02 17.53559 -145.02783 33015 ft 510 kts 52°
2026-05-05 12:02 17.57515 -144.96632 33022 ft 511 kts 52°
2026-05-05 12:03 17.61499 -144.90453 33028 ft 511 kts 52°
2026-05-05 12:03 17.65469 -144.84296 33031 ft 511 kts 51°
2026-05-05 12:04 17.69465 -144.78101 33032 ft 512 kts 52°
2026-05-05 12:04 17.73439 -144.71931 33033 ft 512 kts 51°
2026-05-05 12:05 17.77440 -144.65721 33035 ft 513 kts 51°
2026-05-05 12:05 17.81404 -144.59561 33036 ft 512 kts 52°
2026-05-05 12:06 17.85388 -144.53365 33038 ft 514 kts 51°
2026-05-05 12:06 17.89370 -144.47165 33039 ft 514 kts 51°
2026-05-05 12:07 17.93372 -144.40929 33037 ft 514 kts 51°
2026-05-05 12:07 17.97346 -144.34732 33039 ft 512 kts 52°
2026-05-05 12:08 18.01312 -144.28540 33023 ft 512 kts 51°
2026-05-05 12:08 18.05263 -144.22365 33027 ft 512 kts 52°
2026-05-05 12:09 18.09241 -144.16144 33029 ft 512 kts 52°
2026-05-05 12:09 18.13207 -144.09935 33030 ft 511 kts 52°
2026-05-05 12:10 18.17153 -144.03752 33033 ft 511 kts 52°
2026-05-05 12:10 18.21084 -143.97584 33037 ft 508 kts 52°
2026-05-05 12:11 18.24971 -143.91373 33039 ft 509 kts 52°
2026-05-05 12:11 18.28832 -143.85129 33040 ft 507 kts 53°
2026-05-05 12:12 18.32661 -143.78935 33047 ft 507 kts 53°
2026-05-05 12:12 18.36515 -143.72699 33044 ft 506 kts 53°
2026-05-05 12:13 18.40342 -143.66504 33048 ft 508 kts 53°
2026-05-05 12:13 18.44191 -143.60265 33048 ft 505 kts 53°
2026-05-05 12:14 18.48014 -143.54065 33053 ft 506 kts 53°
2026-05-05 12:14 18.51836 -143.47859 33055 ft 505 kts 53°
2026-05-05 12:15 18.55654 -143.41655 33056 ft 505 kts 53°
2026-05-05 12:15 18.59478 -143.35435 33057 ft 505 kts 53°
2026-05-05 12:16 18.63274 -143.29256 33041 ft 507 kts 53°
2026-05-05 12:16 18.67102 -143.23016 33045 ft 508 kts 54°
2026-05-05 12:17 18.70928 -143.16774 33045 ft 505 kts 54°
2026-05-05 12:17 18.74726 -143.10571 33045 ft 504 kts 53°
2026-05-05 12:18 18.78526 -143.04361 33048 ft 506 kts 53°
2026-05-05 12:18 18.82335 -142.98128 33048 ft 503 kts 54°
2026-05-05 12:19 18.86133 -142.91908 33049 ft 507 kts 54°
2026-05-05 12:19 18.89937 -142.85671 33058 ft 503 kts 54°
2026-05-05 12:20 18.93738 -142.79433 33052 ft 505 kts 53°
2026-05-05 12:20 18.97510 -142.73235 33057 ft 503 kts 53°
2026-05-05 12:21 19.01273 -142.67049 33060 ft 502 kts 54°
2026-05-05 12:21 19.05039 -142.60849 33066 ft 499 kts 54°
2026-05-05 12:22 19.08801 -142.54651 33068 ft 502 kts 54°
2026-05-05 12:22 19.12527 -142.48503 33082 ft 499 kts 54°
2026-05-05 12:23 19.16245 -142.42364 33077 ft 497 kts 54°
2026-05-05 12:23 19.19973 -142.36206 33070 ft 499 kts 54°
2026-05-05 12:24 19.23683 -142.30067 33067 ft 494 kts 54°
2026-05-05 12:24 19.27396 -142.23920 33074 ft 495 kts 54°
2026-05-05 12:25 19.31076 -142.17819 33068 ft 494 kts 54°
2026-05-05 12:25 19.34791 -142.11655 33088 ft 492 kts 55°
2026-05-05 12:26 19.38470 -142.05545 33071 ft 493 kts 54°
2026-05-05 12:26 19.42147 -141.99429 33081 ft 494 kts 54°
2026-05-05 12:27 19.45830 -141.93301 33084 ft 494 kts 54°
2026-05-05 12:27 19.49479 -141.87219 33079 ft 493 kts 54°
2026-05-05 12:28 19.53169 -141.81067 33101 ft 493 kts 54°
2026-05-05 12:28 19.56819 -141.74974 33093 ft 497 kts 55°
2026-05-05 12:29 19.60509 -141.68808 33088 ft 493 kts 54°
2026-05-05 12:29 19.64160 -141.62700 33082 ft 492 kts 54°
2026-05-05 12:30 19.67810 -141.56589 33088 ft 491 kts 54°
2026-05-05 12:30 19.71471 -141.50450 33097 ft 490 kts 54°
2026-05-05 12:31 19.75099 -141.44363 33088 ft 491 kts 54°
2026-05-05 12:31 19.78755 -141.38223 33101 ft 491 kts 54°
2026-05-05 12:32 19.82383 -141.32123 33085 ft 491 kts 54°
2026-05-05 12:32 19.86029 -141.25986 33079 ft 491 kts 54°
2026-05-05 12:33 19.89654 -141.19879 33095 ft 490 kts 55°
2026-05-05 12:33 19.93259 -141.13798 33087 ft 488 kts 55°
2026-05-05 12:34 19.96897 -141.07655 33083 ft 490 kts 55°
2026-05-05 12:34 20.00513 -141.01544 33090 ft 491 kts 55°
2026-05-05 12:35 20.04154 -140.95383 33092 ft 490 kts 54°
2026-05-05 12:35 20.07757 -140.89281 33087 ft 489 kts 54°
2026-05-05 12:36 20.11358 -140.83176 33091 ft 487 kts 55°
2026-05-05 12:36 20.14955 -140.77072 33091 ft 489 kts 55°
2026-05-05 12:37 20.18541 -140.70979 33094 ft 487 kts 55°
2026-05-05 12:37 20.22149 -140.64844 33097 ft 490 kts 55°
2026-05-05 12:38 20.25746 -140.58719 33094 ft 488 kts 54°
2026-05-05 12:38 20.29333 -140.52606 33093 ft 489 kts 55°
2026-05-05 12:39 20.32936 -140.46458 33097 ft 488 kts 55°
2026-05-05 12:39 20.36509 -140.40355 33095 ft 488 kts 55°
2026-05-05 12:40 20.40094 -140.34225 33097 ft 488 kts 55°
2026-05-05 12:40 20.43684 -140.28081 33090 ft 488 kts 55°
2026-05-05 12:41 20.47270 -140.21938 33088 ft 489 kts 55°
2026-05-05 12:41 20.50829 -140.15832 33094 ft 487 kts 55°
2026-05-05 12:42 20.54402 -140.09697 33091 ft 486 kts 55°
2026-05-05 12:42 20.57954 -140.03592 33090 ft 488 kts 55°
2026-05-05 12:43 20.61529 -139.97440 33089 ft 486 kts 55°
2026-05-05 12:43 20.65086 -139.91313 33099 ft 489 kts 55°
2026-05-05 12:44 20.68665 -139.85143 33094 ft 489 kts 55°
2026-05-05 12:44 20.72224 -139.78998 33089 ft 488 kts 55°
2026-05-05 12:45 20.75802 -139.72813 33096 ft 490 kts 55°
2026-05-05 12:45 20.79357 -139.66664 33087 ft 488 kts 55°
2026-05-05 12:46 20.82918 -139.60496 33092 ft 489 kts 54°
2026-05-05 12:46 20.86471 -139.54335 33101 ft 488 kts 55°
2026-05-05 12:47 20.90021 -139.48172 33087 ft 488 kts 55°
2026-05-05 12:47 20.93568 -139.42012 33095 ft 488 kts 55°
2026-05-05 12:48 20.97117 -139.35837 33097 ft 488 kts 55°
2026-05-05 12:48 21.00664 -139.29660 33089 ft 488 kts 55°
2026-05-05 12:49 21.04241 -139.23454 33081 ft 487 kts 53°
2026-05-05 12:49 21.07987 -139.17416 33089 ft 487 kts 53°
2026-05-05 12:50 21.11731 -139.11392 33093 ft 488 kts 53°
2026-05-05 12:50 21.15496 -139.05313 33095 ft 491 kts 53°
2026-05-05 12:51 21.19248 -138.99237 33094 ft 489 kts 53°
2026-05-05 12:51 21.22973 -138.93196 33097 ft 487 kts 53°
2026-05-05 12:52 21.26717 -138.87115 33101 ft 487 kts 53°
2026-05-05 12:52 21.30431 -138.81078 33098 ft 487 kts 53°
2026-05-05 12:53 21.34161 -138.75003 33098 ft 487 kts 53°
2026-05-05 12:53 21.37863 -138.68968 33100 ft 486 kts 53°
2026-05-05 12:54 21.43436 -138.59874 33104 ft 487 kts 53°
2026-05-05 12:55 21.47141 -138.53818 33105 ft 488 kts 53°
2026-05-05 12:55 21.50874 -138.47710 33108 ft 488 kts 53°
2026-05-05 12:56 21.54575 -138.41647 33108 ft 489 kts 53°
2026-05-05 12:56 21.58301 -138.35535 33111 ft 488 kts 52°
2026-05-05 12:57 21.62021 -138.29427 33101 ft 488 kts 53°
2026-05-05 12:57 21.65720 -138.23347 33099 ft 487 kts 53°
2026-05-05 12:58 21.69430 -138.17244 33100 ft 487 kts 53°
2026-05-05 12:58 21.73105 -138.11189 33103 ft 487 kts 53°
2026-05-05 12:59 21.76800 -138.05095 33106 ft 486 kts 53°
2026-05-05 12:59 21.80491 -137.99000 33109 ft 486 kts 53°
2026-05-05 13:00 21.86001 -137.89891 33111 ft 486 kts 53°
2026-05-05 13:01 21.93361 -137.77699 33113 ft 484 kts 53°
2026-05-05 13:01 21.97025 -137.71620 33117 ft 487 kts 53°
2026-05-05 13:02 22.00690 -137.65532 33116 ft 487 kts 53°
2026-05-05 13:02 22.04376 -137.59402 33120 ft 487 kts 53°
2026-05-05 13:03 22.08041 -137.53299 33122 ft 485 kts 53°
2026-05-05 13:03 22.11689 -137.47218 33132 ft 485 kts 53°
2026-05-05 13:04 22.15351 -137.41107 33134 ft 484 kts 53°
2026-05-05 13:04 22.19003 -137.35005 33133 ft 485 kts 53°
2026-05-05 13:05 22.22818 -137.29028 33130 ft 483 kts 50°
2026-05-05 13:05 22.26812 -137.23224 33129 ft 483 kts 49°
2026-05-05 13:06 22.30794 -137.17400 33131 ft 482 kts 50°
2026-05-05 13:06 22.34746 -137.11594 33135 ft 482 kts 50°
2026-05-05 13:07 22.38696 -137.05774 33129 ft 482 kts 50°
2026-05-05 13:07 22.42663 -136.99916 33132 ft 482 kts 50°
2026-05-05 13:08 22.46621 -136.94063 33133 ft 483 kts 50°
2026-05-05 13:08 22.50563 -136.88225 33132 ft 482 kts 50°
2026-05-05 13:09 22.54504 -136.82381 33137 ft 482 kts 50°
2026-05-05 13:09 22.58462 -136.76504 33133 ft 482 kts 50°
2026-05-05 13:10 22.62396 -136.70657 33139 ft 482 kts 50°
2026-05-05 13:10 22.66317 -136.64821 33141 ft 481 kts 50°
2026-05-05 13:11 22.70241 -136.58977 33137 ft 482 kts 50°
2026-05-05 13:11 22.74186 -136.53093 33140 ft 481 kts 50°
2026-05-05 13:12 22.78096 -136.47255 33138 ft 480 kts 50°
2026-05-05 13:12 22.81996 -136.41425 33139 ft 478 kts 50°
2026-05-05 13:13 22.85918 -136.35558 33139 ft 480 kts 50°
2026-05-05 13:13 22.89813 -136.29721 33128 ft 480 kts 50°
2026-05-05 13:14 22.93714 -136.23871 33137 ft 480 kts 50°
2026-05-05 13:14 22.97613 -136.18016 33129 ft 478 kts 50°
2026-05-05 13:15 23.01502 -136.12172 33132 ft 479 kts 50°
2026-05-05 13:15 23.05382 -136.06332 33132 ft 478 kts 50°
2026-05-05 13:16 23.09272 -136.00472 33131 ft 480 kts 50°
2026-05-05 13:16 23.13181 -135.94577 33136 ft 479 kts 50°
2026-05-05 13:17 23.17069 -135.88705 33140 ft 480 kts 50°
2026-05-05 13:17 23.20961 -135.82822 33139 ft 479 kts 50°
2026-05-05 13:18 23.24842 -135.76949 33145 ft 478 kts 51°
2026-05-05 13:18 23.28702 -135.71098 33146 ft 479 kts 51°
2026-05-05 13:19 23.32580 -135.65218 33141 ft 479 kts 51°
2026-05-05 13:19 23.36455 -135.59332 33147 ft 479 kts 50°
2026-05-05 13:20 23.40330 -135.53441 33145 ft 478 kts 50°
2026-05-05 13:20 23.44190 -135.47566 33154 ft 479 kts 50°
2026-05-05 13:21 23.48066 -135.41658 33157 ft 479 kts 50°
2026-05-05 13:21 23.51929 -135.35763 33157 ft 478 kts 50°
2026-05-05 13:22 23.55769 -135.29898 33149 ft 480 kts 51°
2026-05-05 13:22 23.59640 -135.23979 33151 ft 478 kts 51°
2026-05-05 13:23 23.63507 -135.18059 33162 ft 479 kts 51°
2026-05-05 13:23 23.67355 -135.12161 33158 ft 480 kts 51°
2026-05-05 13:24 23.71214 -135.06239 33162 ft 478 kts 51°
2026-05-05 13:24 23.75061 -135.00328 33168 ft 479 kts 51°
2026-05-05 13:25 23.78906 -134.94412 33167 ft 478 kts 51°
2026-05-05 13:25 23.82745 -134.88501 33163 ft 479 kts 51°
2026-05-05 13:26 23.86583 -134.82584 33163 ft 477 kts 51°
2026-05-05 13:26 23.90436 -134.76636 33165 ft 478 kts 51°
2026-05-05 13:27 23.94263 -134.70721 33170 ft 477 kts 51°
2026-05-05 13:27 23.98066 -134.64835 33176 ft 477 kts 51°
2026-05-05 13:28 24.01894 -134.58905 33177 ft 477 kts 51°
2026-05-05 13:28 24.05720 -134.52972 33174 ft 477 kts 51°
2026-05-05 13:29 24.09528 -134.47058 33178 ft 478 kts 51°
2026-05-05 13:29 24.13353 -134.41112 33180 ft 477 kts 51°
2026-05-05 13:30 24.17164 -134.35179 33180 ft 478 kts 51°
2026-05-05 13:30 24.20997 -134.29205 33171 ft 477 kts 51°
2026-05-05 13:31 24.24801 -134.23270 33171 ft 478 kts 51°
2026-05-05 13:31 24.28608 -134.17323 33169 ft 478 kts 51°
2026-05-05 13:32 24.32403 -134.11388 33173 ft 477 kts 51°
2026-05-05 13:32 24.36217 -134.05414 33173 ft 478 kts 51°
2026-05-05 13:33 24.40017 -133.99455 33164 ft 477 kts 51°
2026-05-05 13:33 24.43823 -133.93480 33164 ft 478 kts 51°
2026-05-05 13:34 24.47600 -133.87544 33167 ft 478 kts 51°
2026-05-05 13:34 24.51391 -133.81578 33167 ft 478 kts 51°
2026-05-05 13:35 24.55214 -133.75555 33165 ft 478 kts 51°
2026-05-05 13:35 24.58999 -133.69585 33169 ft 478 kts 51°
2026-05-05 13:36 24.62786 -133.63602 33171 ft 477 kts 51°
2026-05-05 13:36 24.66555 -133.57643 33171 ft 477 kts 51°
2026-05-05 13:37 24.70349 -133.51634 33172 ft 477 kts 51°
2026-05-05 13:37 24.74106 -133.45680 33172 ft 477 kts 51°
2026-05-05 13:38 24.77893 -133.39670 33173 ft 478 kts 51°
2026-05-05 13:38 24.81691 -133.33633 33165 ft 478 kts 52°
2026-05-05 13:39 24.85448 -133.27653 33158 ft 477 kts 52°
2026-05-05 13:39 24.89216 -133.21651 33155 ft 477 kts 52°
2026-05-05 13:40 24.92982 -133.15643 33157 ft 477 kts 52°
2026-05-05 13:40 24.96734 -133.09651 33152 ft 477 kts 52°
2026-05-05 13:41 25.00489 -133.03647 33151 ft 477 kts 51°
2026-05-05 13:41 25.04260 -132.97607 33156 ft 477 kts 52°
2026-05-05 13:42 25.08020 -132.91580 33156 ft 477 kts 52°
2026-05-05 13:42 25.11768 -132.85562 33162 ft 478 kts 51°
2026-05-05 13:43 25.15522 -132.79529 33159 ft 478 kts 51°
2026-05-05 13:43 25.19283 -132.73509 33157 ft 477 kts 50°
2026-05-05 13:44 25.23258 -132.67714 33164 ft 475 kts 49°
2026-05-05 13:44 25.27278 -132.61871 33166 ft 477 kts 49°
2026-05-05 13:45 25.31260 -132.56053 33169 ft 476 kts 49°
2026-05-05 13:45 25.35259 -132.50195 33173 ft 476 kts 49°
2026-05-05 13:46 25.39223 -132.44376 33173 ft 477 kts 49°
2026-05-05 13:46 25.43194 -132.38535 33173 ft 476 kts 49°
2026-05-05 13:47 25.47167 -132.32683 33161 ft 476 kts 49°
2026-05-05 13:47 25.51129 -132.26839 33163 ft 477 kts 49°
2026-05-05 13:48 25.55101 -132.20972 33162 ft 476 kts 49°
2026-05-05 13:48 25.59075 -132.15096 33167 ft 477 kts 49°
2026-05-05 13:49 25.63050 -132.09209 33168 ft 476 kts 49°
2026-05-05 13:49 25.67017 -132.03326 33167 ft 477 kts 49°
2026-05-05 13:50 25.70962 -131.97470 33167 ft 475 kts 49°
2026-05-05 13:50 25.74917 -131.91591 33169 ft 476 kts 49°
2026-05-05 13:51 25.78847 -131.85742 33168 ft 477 kts 49°
2026-05-05 13:51 25.82813 -131.79833 33168 ft 476 kts 49°
2026-05-05 13:52 25.86772 -131.73926 33173 ft 477 kts 49°
2026-05-05 13:52 25.90718 -131.68030 33173 ft 477 kts 49°
2026-05-05 13:53 25.94659 -131.62135 33174 ft 476 kts 49°
2026-05-05 13:53 25.98593 -131.56242 33175 ft 476 kts 49°
2026-05-05 13:54 26.02536 -131.50330 33176 ft 477 kts 49°
2026-05-05 13:54 26.06499 -131.44379 33177 ft 477 kts 49°
2026-05-05 13:55 26.10422 -131.38480 33178 ft 476 kts 49°
2026-05-05 13:55 26.14350 -131.32565 33170 ft 476 kts 49°
2026-05-05 13:56 26.18289 -131.26628 33168 ft 477 kts 49°
2026-05-05 13:56 26.22227 -131.20685 33171 ft 479 kts 49°
2026-05-05 13:57 26.26172 -131.14723 33169 ft 478 kts 49°
2026-05-05 13:57 26.30125 -131.08742 33173 ft 480 kts 49°
2026-05-05 13:58 26.34063 -131.02773 33173 ft 479 kts 49°
2026-05-05 13:58 26.37982 -130.96826 33173 ft 479 kts 49°
2026-05-05 13:59 26.43885 -130.87856 33178 ft 478 kts 49°
2026-05-05 14:00 26.49147 -130.79843 33176 ft 480 kts 49°
2026-05-05 14:00 26.53723 -130.72864 33179 ft 481 kts 49°
2026-05-05 14:01 26.57658 -130.66855 33182 ft 480 kts 49°
2026-05-05 14:01 26.61600 -130.60825 33177 ft 480 kts 49°
2026-05-05 14:02 26.65528 -130.54810 33178 ft 480 kts 49°
2026-05-05 14:02 26.69438 -130.48814 33181 ft 481 kts 49°
2026-05-05 14:03 26.73392 -130.42743 33178 ft 480 kts 49°
2026-05-05 14:03 26.77304 -130.36729 33182 ft 482 kts 49°
2026-05-05 14:04 26.81236 -130.30675 33168 ft 480 kts 49°
2026-05-05 14:04 26.85164 -130.24618 33170 ft 481 kts 49°
2026-05-05 14:05 26.89064 -130.18597 33169 ft 482 kts 49°
2026-05-05 14:05 26.92995 -130.12520 33171 ft 481 kts 49°
2026-05-05 14:06 26.96898 -130.06480 33172 ft 482 kts 49°
2026-05-05 14:06 27.00832 -130.00394 33171 ft 481 kts 48°
2026-05-05 14:07 27.04838 -129.94411 33172 ft 481 kts 48°
2026-05-05 14:07 27.08856 -129.88415 33173 ft 482 kts 47°
2026-05-05 14:08 27.12849 -129.82442 33173 ft 480 kts 47°
2026-05-05 14:08 27.16852 -129.76440 33177 ft 482 kts 47°
2026-05-05 14:09 27.20859 -129.70422 33171 ft 481 kts 48°
2026-05-05 14:09 27.24879 -129.64377 33175 ft 481 kts 48°
2026-05-05 14:10 27.28876 -129.58357 33173 ft 481 kts 48°
2026-05-05 14:10 27.32872 -129.52328 33175 ft 481 kts 47°
2026-05-05 14:11 27.36850 -129.46321 33171 ft 481 kts 47°
2026-05-05 14:11 27.40842 -129.40285 33176 ft 482 kts 47°
2026-05-05 14:12 27.44828 -129.34247 33168 ft 481 kts 48°
2026-05-05 14:12 27.48797 -129.28227 33161 ft 483 kts 48°
2026-05-05 14:13 27.52787 -129.22168 33160 ft 483 kts 48°
2026-05-05 14:13 27.56779 -129.16095 33160 ft 482 kts 48°
2026-05-05 14:14 27.60749 -129.10049 33163 ft 482 kts 48°
2026-05-05 14:14 27.64724 -129.03986 33158 ft 480 kts 48°
2026-05-05 14:15 27.68715 -128.97891 33164 ft 482 kts 48°
2026-05-05 14:15 27.72664 -128.91852 33158 ft 483 kts 48°
2026-05-05 14:16 27.76640 -128.85762 33156 ft 482 kts 48°
2026-05-05 14:16 27.80625 -128.79651 33151 ft 484 kts 48°
2026-05-05 14:17 27.84580 -128.73578 33151 ft 482 kts 48°
2026-05-05 14:17 27.88545 -128.67479 33153 ft 482 kts 48°
2026-05-05 14:18 27.92500 -128.61386 33147 ft 482 kts 48°
2026-05-05 14:18 27.96476 -128.55255 33146 ft 482 kts 48°
2026-05-05 14:19 28.00437 -128.49138 33147 ft 484 kts 48°
2026-05-05 14:19 28.04390 -128.43024 33147 ft 483 kts 47°
2026-05-05 14:20 28.08338 -128.36909 33142 ft 483 kts 47°
2026-05-05 14:20 28.12290 -128.30778 33129 ft 483 kts 48°
2026-05-05 14:21 28.16241 -128.24640 33132 ft 483 kts 48°
2026-05-05 14:21 28.20207 -128.18472 33129 ft 483 kts 48°
2026-05-05 14:22 28.24132 -128.12358 33131 ft 483 kts 48°
2026-05-05 14:22 28.28074 -128.06207 33131 ft 482 kts 48°
2026-05-05 14:23 28.32019 -128.00047 33131 ft 485 kts 48°
2026-05-05 14:23 28.35963 -127.93875 33132 ft 483 kts 48°
2026-05-05 14:24 28.39915 -127.87683 33133 ft 483 kts 47°
2026-05-05 14:24 28.43843 -127.81519 33133 ft 482 kts 47°
2026-05-05 14:25 28.47787 -127.75323 33136 ft 485 kts 47°
2026-05-05 14:25 28.51714 -127.69143 33134 ft 483 kts 47°
2026-05-05 14:26 28.55629 -127.62972 33133 ft 484 kts 47°
2026-05-05 14:26 28.59559 -127.56770 33134 ft 484 kts 47°
2026-05-05 14:27 28.63470 -127.50588 33131 ft 483 kts 47°
2026-05-05 14:27 28.67394 -127.44377 33128 ft 482 kts 47°
2026-05-05 14:28 28.69357 -127.41269 33287 ft 490 kts 47°
2026-05-05 14:28 28.71331 -127.38138 34027 ft 486 kts 47°
2026-05-05 14:28 28.73297 -127.35014 34927 ft 480 kts 47°
2026-05-05 14:28 28.75237 -127.31931 35561 ft 478 kts 48°
2026-05-05 14:29 28.77176 -127.28852 35924 ft 481 kts 48°
2026-05-05 14:29 28.79122 -127.25758 36285 ft 483 kts 48°
2026-05-05 14:29 28.81060 -127.22675 36686 ft 483 kts 48°
2026-05-05 14:29 28.83022 -127.19549 37094 ft 484 kts 48°
2026-05-05 14:30 28.86936 -127.13308 37110 ft 484 kts 48°
2026-05-05 14:30 28.90835 -127.07082 37106 ft 483 kts 48°
2026-05-05 14:31 28.94706 -127.00889 37109 ft 482 kts 48°
2026-05-05 14:31 28.98615 -126.94630 37112 ft 484 kts 48°
2026-05-05 14:32 29.02501 -126.88397 37109 ft 484 kts 48°
2026-05-05 14:32 29.06391 -126.82147 37111 ft 483 kts 48°
2026-05-05 14:33 29.10295 -126.75866 37109 ft 484 kts 48°
2026-05-05 14:33 29.14169 -126.69623 37114 ft 485 kts 49°
2026-05-05 14:34 29.18089 -126.63298 37115 ft 486 kts 49°
2026-05-05 14:34 29.21987 -126.56997 37117 ft 485 kts 48°
2026-05-05 14:35 29.25890 -126.50680 37118 ft 487 kts 48°
2026-05-05 14:35 29.29770 -126.44391 37117 ft 488 kts 49°
2026-05-05 14:36 29.33672 -126.38055 37111 ft 486 kts 48°
2026-05-05 14:36 29.37583 -126.31695 37099 ft 488 kts 49°
2026-05-05 14:37 29.41467 -126.25369 37098 ft 489 kts 49°
2026-05-05 14:37 29.45387 -126.18975 37100 ft 488 kts 49°
2026-05-05 14:38 29.49285 -126.12608 37098 ft 491 kts 49°
2026-05-05 14:38 29.53270 -126.06094 37100 ft 505 kts 49°
2026-05-05 14:39 29.57339 -125.99430 37097 ft 519 kts 49°
2026-05-05 14:39 29.61467 -125.92651 37098 ft 519 kts 49°
2026-05-05 14:40 29.65614 -125.85828 37098 ft 519 kts 49°
2026-05-05 14:40 29.69729 -125.79050 37100 ft 519 kts 49°
2026-05-05 14:41 29.73854 -125.72244 37105 ft 521 kts 49°
2026-05-05 14:41 29.77976 -125.65430 37109 ft 520 kts 49°
2026-05-05 14:42 29.82103 -125.58600 37107 ft 520 kts 49°
2026-05-05 14:42 29.86245 -125.51733 37107 ft 522 kts 49°
2026-05-05 14:43 29.90353 -125.44907 37109 ft 521 kts 49°
2026-05-05 14:43 29.94498 -125.38013 37111 ft 524 kts 49°
2026-05-05 14:44 29.98638 -125.31114 37086 ft 523 kts 49°
2026-05-05 14:44 30.02766 -125.24224 37090 ft 525 kts 49°
2026-05-05 14:45 30.06892 -125.17326 37088 ft 526 kts 50°
2026-05-05 14:45 30.11046 -125.10367 37088 ft 526 kts 50°
2026-05-05 14:46 30.15174 -125.03438 37091 ft 523 kts 49°
2026-05-05 14:46 30.19302 -124.96501 37090 ft 526 kts 49°
2026-05-05 14:47 30.23446 -124.89525 37091 ft 526 kts 50°
2026-05-05 14:47 30.27546 -124.82610 37092 ft 527 kts 50°
2026-05-05 14:48 30.31683 -124.75620 37087 ft 527 kts 50°
2026-05-05 14:48 30.35817 -124.68641 37076 ft 524 kts 47°
2026-05-05 14:49 30.40332 -124.62062 37087 ft 521 kts 44°
2026-05-05 14:49 30.44858 -124.55560 37094 ft 523 kts 45°
2026-05-05 14:50 30.49398 -124.48988 37089 ft 521 kts 44°
2026-05-05 14:50 30.53929 -124.42396 37091 ft 523 kts 45°
2026-05-05 14:51 30.58432 -124.35824 37095 ft 523 kts 45°
2026-05-05 14:51 30.62938 -124.29226 37075 ft 521 kts 45°
2026-05-05 14:52 30.67337 -124.22774 37023 ft 521 kts 45°
2026-05-05 14:52 30.71839 -124.16159 37077 ft 524 kts 45°
2026-05-05 14:53 30.76337 -124.09534 37078 ft 524 kts 46°
2026-05-05 14:53 30.80818 -124.02922 37074 ft 522 kts 46°
2026-05-05 14:54 30.85328 -123.96258 37068 ft 521 kts 45°
2026-05-05 14:54 30.89803 -123.89632 37073 ft 521 kts 45°
2026-05-05 14:55 30.94275 -123.83003 37078 ft 523 kts 45°
2026-05-05 14:55 30.98745 -123.76363 37064 ft 522 kts 46°
2026-05-05 14:56 31.03208 -123.69723 37071 ft 523 kts 45°
2026-05-05 14:56 31.07663 -123.63083 37071 ft 521 kts 46°
2026-05-05 14:57 31.12155 -123.56425 37067 ft 518 kts 42°
2026-05-05 14:57 31.17392 -123.50811 37077 ft 505 kts 32°
2026-05-05 14:58 31.22837 -123.45678 37077 ft 505 kts 32°
2026-05-05 14:58 31.28284 -123.40529 37072 ft 505 kts 32°
2026-05-05 14:59 31.33739 -123.35361 37073 ft 503 kts 32°
2026-05-05 14:59 31.39164 -123.30211 37051 ft 505 kts 32°
2026-05-05 15:00 31.43726 -123.25873 37053 ft 505 kts 32°
2026-05-05 15:00 31.50045 -123.19853 37060 ft 503 kts 32°
2026-05-05 15:01 31.55457 -123.14696 37058 ft 502 kts 32°
2026-05-05 15:01 31.60874 -123.09534 37060 ft 502 kts 32°
2026-05-05 15:02 31.66257 -123.04389 37061 ft 500 kts 32°
2026-05-05 15:02 31.71634 -122.99236 37061 ft 500 kts 32°
2026-05-05 15:03 31.76816 -122.94261 37204 ft 499 kts 32°
2026-05-05 15:03 31.79495 -122.91686 37085 ft 500 kts 33°
2026-05-05 15:03 31.82203 -122.89081 37070 ft 498 kts 33°
2026-05-05 15:04 31.87508 -122.83970 37063 ft 497 kts 33°
2026-05-05 15:04 31.92850 -122.78819 37071 ft 497 kts 33°
2026-05-05 15:05 32.00857 -122.71081 37070 ft 497 kts 33°
2026-05-05 15:06 32.06182 -122.65926 37070 ft 496 kts 33°
2026-05-05 15:06 32.11472 -122.60792 37065 ft 492 kts 33°
2026-05-05 15:07 32.16764 -122.55652 37068 ft 492 kts 33°
2026-05-05 15:07 32.22014 -122.50542 37063 ft 491 kts 33°
2026-05-05 15:08 32.27257 -122.45434 37063 ft 488 kts 33°
2026-05-05 15:08 32.32468 -122.40350 37066 ft 487 kts 33°
2026-05-05 15:09 32.37701 -122.35238 37071 ft 489 kts 33°
2026-05-05 15:09 32.42956 -122.30093 37051 ft 488 kts 34°
2026-05-05 15:10 32.48152 -122.24998 37048 ft 486 kts 34°
2026-05-05 15:10 32.53356 -122.19888 37044 ft 487 kts 35°
2026-05-05 15:11 32.58550 -122.14765 37053 ft 485 kts 35°
2026-05-05 15:11 32.61131 -122.12220 36909 ft 487 kts 35°
2026-05-05 15:11 32.63726 -122.09658 36689 ft 485 kts 35°
2026-05-05 15:11 32.66307 -122.07056 36423 ft 485 kts 39°
2026-05-05 15:12 32.68599 -122.04105 36173 ft 489 kts 48°
2026-05-05 15:12 32.70535 -122.00779 35937 ft 494 kts 53°
2026-05-05 15:12 32.72349 -121.97357 35704 ft 494 kts 53°
2026-05-05 15:12 32.74145 -121.93933 35469 ft 490 kts 54°
2026-05-05 15:13 32.75959 -121.90463 35222 ft 490 kts 54°
2026-05-05 15:13 32.77737 -121.87060 34975 ft 490 kts 53°
2026-05-05 15:13 32.79528 -121.83623 34743 ft 490 kts 53°
2026-05-05 15:13 32.81319 -121.80181 34496 ft 488 kts 54°
2026-05-05 15:14 32.83102 -121.76753 34258 ft 488 kts 53°
2026-05-05 15:14 32.84865 -121.73358 33998 ft 490 kts 54°
2026-05-05 15:14 32.86647 -121.69923 33750 ft 490 kts 54°
2026-05-05 15:14 32.88435 -121.66470 33514 ft 490 kts 54°
2026-05-05 15:15 32.90223 -121.63016 33287 ft 488 kts 54°
2026-05-05 15:15 32.92001 -121.59576 33075 ft 488 kts 54°
2026-05-05 15:15 32.93766 -121.56158 32865 ft 487 kts 54°
2026-05-05 15:15 32.95530 -121.52740 32685 ft 486 kts 54°
2026-05-05 15:16 32.97287 -121.49330 32478 ft 484 kts 54°
2026-05-05 15:16 32.99044 -121.45921 32259 ft 484 kts 54°
2026-05-05 15:16 33.00796 -121.42516 32037 ft 484 kts 54°
2026-05-05 15:16 33.02549 -121.39105 31835 ft 485 kts 54°
2026-05-05 15:17 33.04294 -121.35706 31626 ft 480 kts 54°
2026-05-05 15:17 33.06042 -121.32298 31396 ft 480 kts 54°
2026-05-05 15:17 33.07779 -121.28913 31193 ft 484 kts 54°
2026-05-05 15:17 33.09517 -121.25520 30969 ft 481 kts 54°
2026-05-05 15:18 33.11252 -121.22126 30779 ft 478 kts 54°
2026-05-05 15:18 33.12970 -121.18765 30548 ft 476 kts 54°
2026-05-05 15:18 33.14697 -121.15384 30238 ft 477 kts 54°
2026-05-05 15:18 33.16416 -121.12016 29976 ft 478 kts 54°
2026-05-05 15:19 33.18131 -121.08651 29658 ft 470 kts 54°
2026-05-05 15:19 33.19823 -121.05326 29317 ft 468 kts 54°
2026-05-05 15:19 33.21506 -121.02020 28998 ft 467 kts 54°
2026-05-05 15:19 33.23169 -120.98747 28662 ft 462 kts 54°
2026-05-05 15:20 33.24840 -120.95458 28332 ft 459 kts 54°
2026-05-05 15:20 33.26486 -120.92214 28000 ft 457 kts 54°
2026-05-05 15:20 33.28111 -120.89009 27673 ft 455 kts 54°
2026-05-05 15:20 33.29753 -120.85768 27341 ft 452 kts 54°
2026-05-05 15:21 33.31369 -120.82575 27008 ft 450 kts 54°
2026-05-05 15:21 33.32983 -120.79384 26678 ft 447 kts 54°
2026-05-05 15:21 33.34574 -120.76234 26348 ft 444 kts 54°
2026-05-05 15:21 33.36162 -120.73089 26013 ft 440 kts 54°
2026-05-05 15:22 33.37745 -120.69950 25689 ft 438 kts 54°
2026-05-05 15:22 33.39314 -120.66839 25355 ft 437 kts 55°
2026-05-05 15:22 33.40879 -120.63730 25013 ft 434 kts 55°
2026-05-05 15:22 33.42428 -120.60651 24677 ft 432 kts 55°
2026-05-05 15:23 33.43963 -120.57598 24354 ft 430 kts 55°
2026-05-05 15:23 33.45506 -120.54527 24023 ft 431 kts 55°
2026-05-05 15:23 33.47048 -120.51453 23656 ft 429 kts 55°
2026-05-05 15:23 33.48564 -120.48428 23283 ft 426 kts 55°
2026-05-05 15:24 33.50091 -120.45385 22917 ft 435 kts 55°
2026-05-05 15:24 33.51682 -120.42214 22548 ft 450 kts 56°
2026-05-05 15:24 33.53306 -120.38966 22184 ft 452 kts 56°
2026-05-05 15:24 33.54919 -120.35736 21809 ft 454 kts 56°
2026-05-05 15:25 33.56531 -120.32506 21439 ft 453 kts 56°
2026-05-05 15:25 33.58147 -120.29266 21067 ft 455 kts 57°
2026-05-05 15:25 33.59769 -120.26014 20694 ft 456 kts 57°
2026-05-05 15:25 33.61391 -120.22757 20330 ft 456 kts 57°
2026-05-05 15:26 33.63015 -120.19492 19959 ft 451 kts 57°
2026-05-05 15:26 33.64597 -120.16305 19591 ft 438 kts 57°
2026-05-05 15:26 33.66128 -120.13222 19230 ft 427 kts 57°
2026-05-05 15:26 33.67634 -120.10186 18877 ft 416 kts 57°
2026-05-05 15:27 33.69089 -120.07248 18633 ft 410 kts 57°
2026-05-05 15:27 33.70557 -120.04288 18450 ft 416 kts 57°
2026-05-05 15:27 33.72036 -120.01300 18270 ft 414 kts 57°
2026-05-05 15:27 33.73500 -119.98341 18095 ft 415 kts 57°
2026-05-05 15:28 33.74973 -119.95359 17918 ft 414 kts 57°
2026-05-05 15:28 33.76436 -119.92398 17742 ft 414 kts 57°
2026-05-05 15:28 33.77925 -119.89379 17564 ft 415 kts 57°
2026-05-05 15:28 33.79384 -119.86417 17388 ft 415 kts 57°
2026-05-05 15:29 33.80829 -119.83481 17208 ft 401 kts 57°
2026-05-05 15:29 33.82223 -119.80647 17040 ft 387 kts 57°
2026-05-05 15:29 33.83562 -119.77920 16999 ft 370 kts 57°
2026-05-05 15:29 33.84845 -119.75307 16994 ft 357 kts 57°
2026-05-05 15:30 33.86079 -119.72793 16918 ft 344 kts 57°
2026-05-05 15:30 33.87265 -119.70373 16860 ft 331 kts 57°
2026-05-05 15:30 33.88432 -119.67996 16664 ft 330 kts 57°
2026-05-05 15:30 33.89637 -119.65542 16835 ft 347 kts 57°
2026-05-05 15:31 33.90865 -119.63046 16633 ft 355 kts 57°
2026-05-05 15:31 33.92131 -119.60477 16229 ft 356 kts 57°
2026-05-05 15:31 33.93370 -119.57961 15841 ft 352 kts 57°
2026-05-05 15:31 33.94617 -119.55422 15463 ft 350 kts 57°
2026-05-05 15:32 33.95844 -119.52926 15093 ft 348 kts 57°
2026-05-05 15:32 33.97081 -119.50407 14719 ft 347 kts 57°
2026-05-05 15:32 33.98293 -119.47937 14348 ft 345 kts 57°
2026-05-05 15:32 33.99517 -119.45441 13983 ft 343 kts 57°
2026-05-05 15:33 34.00723 -119.42979 13625 ft 343 kts 57°
2026-05-05 15:33 34.01936 -119.40504 13268 ft 341 kts 57°
2026-05-05 15:33 34.03123 -119.38077 12902 ft 338 kts 57°
2026-05-05 15:33 34.04321 -119.35626 12528 ft 335 kts 57°
2026-05-05 15:34 34.05494 -119.33227 12180 ft 332 kts 58°
2026-05-05 15:34 34.06653 -119.30853 11847 ft 329 kts 58°
2026-05-05 15:34 34.07814 -119.28479 11785 ft 330 kts 58°
2026-05-05 15:34 34.08979 -119.26096 11734 ft 330 kts 58°
2026-05-05 15:35 34.10152 -119.23695 11655 ft 329 kts 58°
2026-05-05 15:35 34.11300 -119.21342 11563 ft 329 kts 58°
2026-05-05 15:35 34.12461 -119.18961 11470 ft 329 kts 58°
2026-05-05 15:35 34.13628 -119.16567 11377 ft 329 kts 58°
2026-05-05 15:36 34.14778 -119.14204 11283 ft 328 kts 58°
2026-05-05 15:36 34.15939 -119.11820 11187 ft 327 kts 58°
2026-05-05 15:36 34.17057 -119.09506 11082 ft 316 kts 60°
2026-05-05 15:36 34.17719 -119.07057 10979 ft 305 kts 83°
2026-05-05 15:37 34.17529 -119.04546 10903 ft 296 kts 103°
2026-05-05 15:37 34.16876 -119.02174 10845 ft 299 kts 110°
2026-05-05 15:37 34.16071 -118.99873 10777 ft 299 kts 112°
2026-05-05 15:37 34.15210 -118.97607 10709 ft 299 kts 113°
2026-05-05 15:38 34.14336 -118.95359 10638 ft 298 kts 114°
2026-05-05 15:38 34.13445 -118.93079 10562 ft 298 kts 114°
2026-05-05 15:38 34.12559 -118.90816 10488 ft 298 kts 114°
2026-05-05 15:38 34.11675 -118.88559 10412 ft 297 kts 114°
2026-05-05 15:39 34.10800 -118.86326 10342 ft 297 kts 114°
2026-05-05 15:39 34.09924 -118.84092 10269 ft 296 kts 114°
2026-05-05 15:39 34.09044 -118.81851 10191 ft 295 kts 114°
2026-05-05 15:39 34.08160 -118.79600 10122 ft 295 kts 114°
2026-05-05 15:40 34.07291 -118.77387 10044 ft 295 kts 114°
2026-05-05 15:40 34.06412 -118.75154 9967 ft 290 kts 114°
2026-05-05 15:40 34.05555 -118.72971 9773 ft 287 kts 114°
2026-05-05 15:40 34.04713 -118.70818 9493 ft 284 kts 114°
2026-05-05 15:41 34.03878 -118.68692 9234 ft 280 kts 114°
2026-05-05 15:41 34.03111 -118.66552 8987 ft 277 kts 104°
2026-05-05 15:41 34.02761 -118.64255 8774 ft 277 kts 95°
2026-05-05 15:41 34.02542 -118.61964 8568 ft 276 kts 95°
2026-05-05 15:42 34.02335 -118.59700 8366 ft 275 kts 95°
2026-05-05 15:42 34.02121 -118.57408 8160 ft 274 kts 95°
2026-05-05 15:42 34.01910 -118.55170 7956 ft 274 kts 95°
2026-05-05 15:42 34.01699 -118.52929 7726 ft 270 kts 95°
2026-05-05 15:43 34.01490 -118.50700 7491 ft 266 kts 95°
2026-05-05 15:43 34.01283 -118.48509 7264 ft 262 kts 95°
2026-05-05 15:43 34.01095 -118.46354 7036 ft 257 kts 90°
2026-05-05 15:43 34.01271 -118.44249 6822 ft 251 kts 78°
2026-05-05 15:44 34.01614 -118.42201 6618 ft 247 kts 76°
2026-05-05 15:44 34.01969 -118.40178 6414 ft 242 kts 76°
2026-05-05 15:44 34.02309 -118.38214 6217 ft 238 kts 76°
2026-05-05 15:44 34.02644 -118.36272 6031 ft 234 kts 76°
2026-05-05 15:45 34.02917 -118.34375 5990 ft 232 kts 82°
2026-05-05 15:45 34.03087 -118.32416 5982 ft 234 kts 83°
2026-05-05 15:45 34.03267 -118.30496 5982 ft 234 kts 82°
2026-05-05 15:45 34.03469 -118.28533 5982 ft 233 kts 81°
2026-05-05 15:46 34.03686 -118.26598 5983 ft 234 kts 81°
2026-05-05 15:46 34.03903 -118.24653 5798 ft 237 kts 81°
2026-05-05 15:46 34.04118 -118.22694 5570 ft 234 kts 81°
2026-05-05 15:46 34.04330 -118.20769 5348 ft 232 kts 82°
2026-05-05 15:47 34.04540 -118.18849 5125 ft 230 kts 82°
2026-05-05 15:47 34.04680 -118.17574 4977 ft 230 kts 82°
2026-05-05 15:47 34.04961 -118.15028 4690 ft 227 kts 81°
2026-05-05 15:47 34.05170 -118.13148 4463 ft 227 kts 81°
2026-05-05 15:48 34.05370 -118.11321 4244 ft 226 kts 82°
2026-05-05 15:48 34.05572 -118.09436 4020 ft 226 kts 82°
2026-05-05 15:48 34.05776 -118.07565 3796 ft 224 kts 81°
2026-05-05 15:48 34.05980 -118.05714 3574 ft 223 kts 81°
2026-05-05 15:49 34.06181 -118.03860 3350 ft 223 kts 82°
2026-05-05 15:49 34.06379 -118.02023 3127 ft 222 kts 82°
2026-05-05 15:49 34.06573 -118.00181 2985 ft 220 kts 85°
2026-05-05 15:49 34.06326 -117.98391 2950 ft 219 kts 116°
2026-05-05 15:50 34.05318 -117.97066 2942 ft 218 kts 149°
2026-05-05 15:50 34.03904 -117.96614 2933 ft 217 kts 182°
2026-05-05 15:50 34.02501 -117.97159 2929 ft 216 kts 214°
2026-05-05 15:50 34.01461 -117.98467 2964 ft 218 kts 230°
2026-05-05 15:51 34.00519 -117.99896 2974 ft 218 kts 232°
2026-05-05 15:51 33.99733 -118.01454 2965 ft 217 kts 244°
2026-05-05 15:51 33.99208 -118.03162 2968 ft 217 kts 253°
2026-05-05 15:51 33.98857 -118.04883 2965 ft 206 kts 257°
2026-05-05 15:52 33.98607 -118.06533 2966 ft 192 kts 259°
2026-05-05 15:52 33.98423 -118.08090 2974 ft 188 kts 263°
2026-05-05 15:52 33.98270 -118.09659 2979 ft 187 kts 264°
2026-05-05 15:52 33.98126 -118.11216 2979 ft 186 kts 264°
2026-05-05 15:53 33.97983 -118.12766 2981 ft 187 kts 263°
2026-05-05 15:53 33.97839 -118.14284 2970 ft 186 kts 263°
2026-05-05 15:53 33.97687 -118.15839 2801 ft 183 kts 263°
2026-05-05 15:53 33.97541 -118.17311 2664 ft 174 kts 263°
2026-05-05 15:54 33.97396 -118.18755 2556 ft 168 kts 263°
2026-05-05 15:54 33.97255 -118.20160 2449 ft 171 kts 263°
2026-05-05 15:54 33.97114 -118.21552 2351 ft 171 kts 263°
2026-05-05 15:54 33.96970 -118.22971 2251 ft 171 kts 263°
2026-05-05 15:55 33.96827 -118.24383 2153 ft 171 kts 263°
2026-05-05 15:55 33.96683 -118.25806 2054 ft 172 kts 263°
2026-05-05 15:55 33.96537 -118.27240 1954 ft 172 kts 263°
2026-05-05 15:55 33.96391 -118.28670 1855 ft 172 kts 263°
2026-05-05 15:56 33.96247 -118.30082 1748 ft 172 kts 263°
2026-05-05 15:56 33.96101 -118.31516 1599 ft 170 kts 263°
2026-05-05 15:56 33.95950 -118.32918 1454 ft 166 kts 262°
2026-05-05 15:56 33.95814 -118.34257 1213 ft 163 kts 263°
2026-05-05 15:57 33.95676 -118.35609 977 ft 162 kts 263°
2026-05-05 15:57 33.95541 -118.36919 744 ft 159 kts 262°
2026-05-05 15:57 33.95406 -118.38228 514 ft 159 kts 263°
2026-05-05 15:57 33.95271 -118.39565 286 ft 159 kts 263°
2026-05-05 15:58 33.95144 -118.40848 139 ft 140 kts 262°
2026-05-05 15:58 33.95041 -118.41818 133 ft 98 kts 263°
2026-05-05 15:58 33.94981 -118.42421 131 ft 33 kts 260°
2026-05-05 15:58 33.94911 -118.42592 129 ft 18 kts 234°
2026-05-05 15:59 33.94863 -118.42666 127 ft 1 kts 229°
2026-05-05 15:59 33.94860 -118.42670 127 ft 0 kts 228°
2026-05-05 15:59 33.94853 -118.42679 127 ft 5 kts 227°
2026-05-05 16:00 33.94798 -118.42739 126 ft 13 kts 213°
2026-05-05 16:00 33.94709 -118.42778 125 ft 13 kts 189°
2026-05-05 16:00 33.94611 -118.42775 123 ft 15 kts 172°
2026-05-05 16:00 33.94503 -118.42757 120 ft 16 kts 172°
2026-05-05 16:01 33.94385 -118.42741 118 ft 17 kts 175°
2026-05-05 16:01 33.94264 -118.42722 116 ft 17 kts 171°
2026-05-05 16:01 33.94142 -118.42705 115 ft 17 kts 175°
2026-05-05 16:01 33.94032 -118.42689 119 ft 14 kts 173°
2026-05-05 16:02 33.93935 -118.42674 119 ft 14 kts 173°
2026-05-05 16:02 33.93837 -118.42662 118 ft 14 kts 173°
2026-05-05 16:02 33.93737 -118.42647 117 ft 14 kts 173°
2026-05-05 16:02 33.93694 -118.42593 117 ft 8 kts 82°
2026-05-05 16:03 33.93706 -118.42493 119 ft 13 kts 82°
2026-05-05 16:03 33.93716 -118.42387 122 ft 14 kts 83°
2026-05-05 16:03 33.93733 -118.42233 127 ft 18 kts 83°
2026-05-05 16:03 33.93747 -118.42090 129 ft 16 kts 84°
2026-05-05 16:04 33.93759 -118.41965 132 ft 13 kts 83°
2026-05-05 16:04 33.93771 -118.41859 134 ft 11 kts 82°
2026-05-05 16:04 33.93780 -118.41769 135 ft 10 kts 83°
2026-05-05 16:04 33.93787 -118.41685 136 ft 9 kts 84°
2026-05-05 16:05 33.93794 -118.41605 137 ft 12 kts 83°
2026-05-05 16:05 33.93814 -118.41460 137 ft 20 kts 81°
2026-05-05 16:05 33.93828 -118.41296 138 ft 18 kts 84°
2026-05-05 16:05 33.93843 -118.41149 140 ft 17 kts 84°
2026-05-05 16:06 33.93856 -118.41011 141 ft 16 kts 82°
2026-05-05 16:06 33.93870 -118.40891 141 ft 12 kts 81°
2026-05-05 16:06 33.93911 -118.40810 140 ft 12 kts 12°
2026-05-05 16:06 33.94002 -118.40822 139 ft 13 kts 352°
2026-05-05 16:07 33.94078 -118.40836 138 ft 5 kts 335°
2026-05-05 16:07 33.94093 -118.40878 138 ft 2 kts 266°
2026-05-05 16:07 33.94091 -118.40903 138 ft 3 kts 264°
2026-05-05 16:07 33.94089 -118.40923 138 ft 1 kts 264°
2026-05-05 16:08 33.94089 -118.40928 138 ft 0 kts 263°